GEFSMA_prec_meanprecacc_234.txt.gz
Total_Precipitation_Accumulation
0.97 0.92 0.84 0.85 0.79 0.91 1.07 1.17 1.13 1.04 1.03 0.97 0.89 0.99 1.04 1.13 1.17 1.22 1.35 1.45 1.71 2.13 2.46 2.46 2.18 1.93 1.81 1.78 1.83 1.86 1.92 2.04 2.03 2.00 2.03 1.98 1.94 1.80 1.73 1.74 1.69 1.64 1.71
0.99 0.97 0.94 0.97 0.93 0.98 1.13 1.15 1.06 1.11 1.18 1.09 0.90 0.92 1.02 1.10 1.16 1.18 1.22 1.38 1.55 1.74 2.26 2.58 2.50 2.28 2.21 2.04 2.13 2.15 2.09 1.91 1.84 1.90 1.93 1.95 1.97 1.80 1.68 1.62 1.60 1.52 1.53
0.87 0.91 0.94 0.95 1.00 1.10 1.17 1.22 1.07 1.12 1.10 1.03 0.97 0.92 0.94 0.98 1.02 1.08 1.05 1.11 1.27 1.46 1.87 2.32 2.61 2.59 2.59 2.51 2.38 2.24 2.02 1.80 1.78 1.82 1.87 1.81 1.87 1.80 1.69 1.72 1.62 1.62 1.60
0.81 0.95 0.98 0.95 0.98 1.13 1.25 1.32 1.24 1.23 1.19 1.15 1.12 1.04 0.95 1.02 0.97 1.01 1.05 1.03 1.20 1.20 1.46 1.77 2.05 2.30 2.57 2.54 2.35 2.25 2.04 1.70 1.63 1.74 1.80 1.68 1.73 1.77 1.65 1.74 1.67 1.60 1.56
0.91 1.10 1.21 1.20 1.18 1.22 1.23 1.20 1.29 1.32 1.31 1.30 1.22 1.17 1.09 1.05 1.10 1.03 1.05 1.10 1.09 1.15 1.31 1.36 1.47 1.56 1.95 2.21 2.26 2.43 2.32 1.86 1.61 1.69 1.77 1.60 1.59 1.73 1.62 1.62 1.59 1.47 1.40
1.26 1.44 1.42 1.49 1.56 1.46 1.43 1.39 1.43 1.39 1.32 1.36 1.25 1.15 1.10 1.03 1.17 1.22 1.17 1.20 1.18 1.11 1.31 1.43 1.39 1.18 1.40 1.72 2.02 2.41 2.60 2.20 1.86 1.76 1.85 1.72 1.61 1.76 1.61 1.58 1.58 1.35 1.28
1.56 1.81 1.76 1.83 1.90 1.81 1.78 1.79 2.00 1.95 1.67 1.44 1.51 1.36 1.19 1.09 1.26 1.33 1.27 1.32 1.37 1.40 1.51 1.51 1.40 1.24 1.10 1.19 1.43 1.96 2.59 2.47 2.22 1.99 1.96 1.86 1.65 1.61 1.45 1.45 1.49 1.39 1.24
1.48 1.62 1.89 2.01 1.98 2.07 2.20 2.18 2.55 2.68 2.21 1.77 1.80 1.99 1.75 1.57 1.37 1.24 1.26 1.30 1.43 1.63 1.67 1.52 1.39 1.23 1.12 1.12 0.97 1.35 1.97 2.31 2.33 2.20 2.04 1.85 1.68 1.52 1.47 1.52 1.49 1.53 1.39
1.45 1.56 1.71 1.86 1.90 2.02 2.16 2.27 2.61 3.12 2.88 2.27 2.04 2.37 2.13 1.90 1.77 1.44 1.25 1.27 1.39 1.67 1.90 1.81 1.58 1.41 1.23 1.24 1.12 1.13 1.36 1.65 2.17 2.38 2.28 2.04 1.91 1.67 1.58 1.70 1.53 1.65 1.66
1.33 1.41 1.54 1.68 1.82 1.86 2.01 2.11 2.24 2.76 3.15 2.83 2.51 2.19 1.87 1.81 1.95 1.85 1.49 1.38 1.42 1.56 1.75 1.75 1.63 1.59 1.44 1.32 1.20 1.10 1.16 1.30 1.82 2.23 2.43 2.36 2.19 1.96 1.94 2.12 1.84 1.71 1.69
1.44 1.44 1.57 1.65 1.67 1.74 1.86 2.19 2.46 2.73 2.95 2.94 2.87 2.66 2.39 2.11 1.78 1.96 1.95 1.68 1.56 1.51 1.57 1.62 1.57 1.58 1.57 1.49 1.53 1.30 1.13 1.14 1.37 1.81 2.29 2.60 2.50 2.31 2.40 2.49 2.11 1.93 1.84
1.56 1.59 1.64 1.64 1.62 1.67 1.78 2.01 2.31 2.53 2.83 3.01 2.93 2.72 2.60 2.47 2.25 2.15 1.99 1.85 1.82 1.64 1.51 1.49 1.42 1.44 1.54 1.68 1.65 1.62 1.26 1.04 1.05 1.35 1.70 2.08 2.35 2.45 2.63 2.64 2.39 2.33 2.16
1.47 1.50 1.58 1.70 1.77 1.81 1.93 2.11 2.26 2.19 2.38 2.76 2.77 2.62 2.53 2.33 2.31 2.36 2.25 1.96 1.80 1.52 1.40 1.35 1.31 1.42 1.42 1.46 1.68 1.84 1.39 1.11 0.94 1.17 1.34 1.46 1.71 2.06 2.48 2.72 2.74 2.71 2.58
1.42 1.36 1.39 1.50 1.62 1.79 1.85 1.90 1.93 1.91 2.01 2.26 2.35 2.53 2.63 2.39 2.26 2.14 2.07 2.12 1.90 1.63 1.46 1.33 1.24 1.28 1.31 1.35 1.57 1.73 1.37 1.18 0.90 0.87 0.97 1.17 1.28 1.43 1.75 2.16 2.53 2.64 2.78
1.16 1.08 1.08 1.15 1.23 1.29 1.38 1.53 1.62 1.75 1.79 1.91 2.06 2.20 2.36 2.46 2.36 2.13 2.04 2.03 2.02 1.85 1.62 1.49 1.33 1.16 1.27 1.40 1.61 1.41 1.30 1.29 1.07 0.92 0.86 0.92 1.03 1.08 1.22 1.36 1.54 1.85 2.27
1.09 1.00 0.96 0.93 0.92 0.88 0.92 1.12 1.32 1.45 1.54 1.69 1.87 2.01 2.05 2.11 2.29 2.23 2.03 2.00 1.94 1.84 1.70 1.50 1.39 1.26 1.44 1.38 1.53 1.36 1.36 1.42 1.14 1.04 0.94 0.88 0.87 0.81 0.80 0.85 0.87 1.01 1.39
1.08 1.06 0.96 0.89 0.98 0.98 0.94 1.01 1.07 1.15 1.21 1.34 1.47 1.59 1.75 2.01 2.31 2.32 2.25 2.12 1.99 1.86 1.66 1.50 1.29 1.23 1.53 1.64 1.56 1.45 1.42 1.38 1.15 1.10 0.99 0.89 0.83 0.77 0.71 0.66 0.67 0.71 0.84
0.74 0.83 0.92 0.86 0.84 0.88 0.91 0.97 0.99 1.03 1.07 1.16 1.25 1.38 1.55 1.83 2.17 2.38 2.45 2.33 2.17 2.02 1.90 1.76 1.43 1.20 1.32 1.65 1.78 1.72 1.52 1.38 1.23 1.16 1.02 0.90 0.83 0.74 0.68 0.66 0.66 0.66 0.67
0.57 0.62 0.71 0.71 0.80 0.89 0.91 0.94 0.95 0.98 1.01 1.10 1.24 1.29 1.34 1.52 1.71 1.92 2.11 2.23 2.21 2.18 2.17 1.94 1.63 1.37 1.30 1.42 1.67 1.69 1.62 1.61 1.39 1.31 1.30 1.15 1.01 0.90 0.79 0.70 0.69 0.66 0.63
0.64 0.69 0.80 0.82 0.77 0.76 0.81 0.93 0.96 0.92 0.90 0.94 1.01 1.11 1.20 1.24 1.39 1.53 1.65 1.84 2.05 2.29 2.37 2.21 1.95 1.62 1.49 1.38 1.48 1.64 1.71 1.67 1.59 1.41 1.37 1.25 1.24 1.17 1.05 0.88 0.75 0.68 0.69
0.71 0.72 0.81 0.91 0.96 0.90 0.87 0.96 0.92 0.90 0.91 0.89 0.92 0.93 1.00 1.01 1.07 1.25 1.30 1.53 1.85 2.12 2.22 2.29 2.16 1.85 1.59 1.41 1.20 1.31 1.57 1.80 1.81 1.73 1.72 1.47 1.34 1.19 1.11 1.07 0.99 0.86 0.77
0.58 0.57 0.60 0.66 0.75 0.80 1.00 0.96 0.79 0.75 0.80 0.86 0.91 0.90 0.92 0.86 0.83 0.90 1.03 1.16 1.46 1.68 1.82 1.90 1.92 1.76 1.54 1.41 1.36 1.33 1.40 1.55 1.60 1.50 1.55 1.62 1.55 1.40 1.30 1.18 1.18 1.21 1.12
0.47 0.44 0.44 0.45 0.51 0.66 0.75 0.59 0.57 0.61 0.75 0.86 0.93 0.95 0.91 0.85 0.89 0.90 0.92 0.93 1.00 1.18 1.40 1.60 1.63 1.54 1.59 1.51 1.43 1.33 1.34 1.36 1.34 1.45 1.53 1.60 1.59 1.47 1.40 1.39 1.41 1.31 1.24
0.39 0.38 0.43 0.50 0.51 0.53 0.61 0.51 0.48 0.57 0.76 0.89 0.89 0.85 0.92 0.93 0.95 1.01 0.94 1.01 0.97 0.95 1.04 1.09 1.23 1.43 1.58 1.75 1.73 1.62 1.63 1.56 1.47 1.58 1.60 1.55 1.46 1.38 1.29 1.26 1.32 1.20 1.11
0.44 0.44 0.54 0.61 0.55 0.49 0.54 0.54 0.58 0.71 0.83 0.91 0.87 0.87 0.94 0.99 1.12 1.17 1.07 1.13 1.09 1.06 1.03 1.13 1.22 1.33 1.42 1.54 1.69 1.73 1.69 1.66 1.52 1.45 1.46 1.42 1.31 1.32 1.31 1.20 1.12 1.12 1.02
0.39 0.46 0.47 0.45 0.45 0.52 0.60 0.57 0.67 0.84 0.96 1.06 1.01 1.00 1.19 1.14 1.12 1.07 1.05 1.19 1.16 1.02 0.94 0.98 1.04 1.13 1.17 1.26 1.40 1.45 1.58 1.65 1.56 1.41 1.23 1.22 1.22 1.26 1.30 1.19 1.08 1.01 0.98

GEFSMA_prec_meanprecacc_240.txt.gz
Total_Precipitation_Accumulation
0.99 0.94 0.86 0.87 0.80 0.92 1.08 1.19 1.16 1.08 1.06 0.99 0.91 1.01 1.07 1.18 1.23 1.30 1.43 1.54 1.79 2.22 2.56 2.56 2.26 1.99 1.88 1.84 1.89 1.91 1.96 2.09 2.09 2.07 2.09 2.04 1.99 1.85 1.77 1.78 1.72 1.66 1.74
0.99 0.97 0.95 0.98 0.94 0.99 1.14 1.17 1.08 1.13 1.21 1.12 0.93 0.95 1.05 1.13 1.20 1.23 1.28 1.44 1.60 1.81 2.35 2.68 2.59 2.36 2.31 2.15 2.23 2.23 2.15 1.96 1.89 1.96 1.97 1.99 2.00 1.84 1.73 1.67 1.64 1.55 1.57
0.88 0.93 0.95 0.96 1.01 1.11 1.19 1.25 1.10 1.14 1.14 1.07 1.00 0.95 0.97 1.00 1.05 1.11 1.08 1.15 1.30 1.51 1.95 2.40 2.69 2.69 2.68 2.62 2.50 2.34 2.09 1.86 1.82 1.86 1.90 1.83 1.89 1.82 1.72 1.75 1.65 1.65 1.62
0.82 0.96 0.98 0.95 0.98 1.14 1.28 1.36 1.28 1.26 1.23 1.18 1.15 1.06 0.97 1.04 0.99 1.03 1.07 1.05 1.23 1.23 1.51 1.84 2.13 2.39 2.68 2.66 2.45 2.33 2.10 1.75 1.66 1.77 1.82 1.69 1.76 1.81 1.68 1.77 1.69 1.62 1.57
0.92 1.11 1.22 1.20 1.20 1.23 1.25 1.25 1.34 1.37 1.36 1.33 1.24 1.19 1.10 1.07 1.12 1.04 1.07 1.12 1.11 1.18 1.35 1.43 1.55 1.67 2.06 2.29 2.34 2.50 2.37 1.91 1.64 1.71 1.79 1.61 1.62 1.77 1.64 1.63 1.61 1.48 1.41
1.27 1.45 1.44 1.52 1.58 1.48 1.45 1.42 1.47 1.43 1.37 1.40 1.27 1.17 1.12 1.05 1.18 1.23 1.19 1.21 1.20 1.16 1.40 1.52 1.48 1.27 1.48 1.80 2.09 2.46 2.64 2.26 1.91 1.79 1.87 1.75 1.64 1.80 1.63 1.60 1.60 1.37 1.29
1.57 1.81 1.78 1.86 1.94 1.84 1.80 1.81 2.03 1.97 1.70 1.47 1.54 1.38 1.21 1.10 1.28 1.35 1.29 1.34 1.42 1.47 1.57 1.57 1.46 1.30 1.15 1.23 1.47 1.99 2.62 2.51 2.27 2.02 1.98 1.88 1.68 1.65 1.47 1.48 1.50 1.41 1.25
1.48 1.63 1.90 2.03 2.01 2.10 2.22 2.19 2.56 2.70 2.22 1.78 1.81 2.01 1.77 1.59 1.41 1.29 1.30 1.32 1.47 1.67 1.71 1.55 1.42 1.26 1.13 1.13 0.99 1.37 1.98 2.33 2.37 2.23 2.05 1.87 1.71 1.54 1.49 1.55 1.51 1.55 1.40
1.46 1.57 1.72 1.87 1.91 2.03 2.18 2.29 2.62 3.14 2.90 2.28 2.05 2.39 2.15 1.93 1.82 1.49 1.29 1.29 1.41 1.70 1.92 1.83 1.60 1.42 1.25 1.25 1.13 1.14 1.36 1.67 2.19 2.40 2.30 2.06 1.93 1.68 1.60 1.72 1.55 1.67 1.68
1.34 1.42 1.55 1.68 1.82 1.87 2.02 2.12 2.25 2.78 3.17 2.85 2.53 2.20 1.88 1.83 1.98 1.89 1.53 1.41 1.45 1.58 1.77 1.77 1.65 1.60 1.45 1.33 1.21 1.11 1.17 1.31 1.85 2.26 2.47 2.39 2.22 1.98 1.95 2.13 1.86 1.73 1.72
1.44 1.44 1.58 1.65 1.68 1.75 1.87 2.20 2.46 2.74 2.97 2.96 2.89 2.68 2.40 2.13 1.81 2.00 1.99 1.72 1.59 1.55 1.60 1.64 1.58 1.59 1.58 1.50 1.55 1.32 1.16 1.16 1.40 1.85 2.33 2.64 2.53 2.33 2.42 2.51 2.13 1.96 1.89
1.57 1.60 1.65 1.65 1.63 1.67 1.79 2.02 2.32 2.54 2.84 3.03 2.95 2.75 2.62 2.50 2.28 2.19 2.03 1.90 1.88 1.69 1.56 1.52 1.44 1.45 1.56 1.70 1.66 1.64 1.28 1.07 1.08 1.39 1.74 2.12 2.39 2.49 2.66 2.69 2.43 2.39 2.23
1.48 1.51 1.59 1.71 1.78 1.82 1.94 2.12 2.27 2.19 2.39 2.77 2.79 2.64 2.55 2.35 2.32 2.40 2.31 2.01 1.87 1.58 1.44 1.39 1.34 1.43 1.43 1.47 1.69 1.86 1.41 1.13 0.97 1.21 1.39 1.51 1.74 2.10 2.52 2.76 2.78 2.75 2.63
1.44 1.36 1.40 1.50 1.62 1.80 1.86 1.92 1.94 1.92 2.02 2.27 2.36 2.55 2.65 2.41 2.28 2.20 2.15 2.20 1.98 1.68 1.49 1.36 1.26 1.29 1.32 1.36 1.58 1.74 1.38 1.20 0.92 0.90 1.04 1.22 1.32 1.48 1.80 2.22 2.59 2.68 2.81
1.18 1.09 1.09 1.15 1.23 1.30 1.38 1.53 1.63 1.76 1.80 1.92 2.07 2.21 2.37 2.48 2.40 2.18 2.12 2.09 2.07 1.88 1.64 1.50 1.35 1.18 1.28 1.41 1.62 1.43 1.32 1.30 1.09 0.95 0.89 0.94 1.06 1.13 1.27 1.41 1.60 1.88 2.28
1.09 1.01 0.97 0.94 0.92 0.89 0.93 1.13 1.33 1.46 1.55 1.70 1.88 2.02 2.07 2.13 2.30 2.25 2.06 2.03 1.96 1.85 1.71 1.51 1.41 1.27 1.45 1.39 1.54 1.38 1.38 1.44 1.16 1.06 0.96 0.90 0.88 0.82 0.81 0.88 0.95 1.08 1.43
1.09 1.06 0.96 0.90 0.99 0.99 0.95 1.02 1.08 1.15 1.22 1.35 1.49 1.62 1.78 2.03 2.32 2.32 2.25 2.12 2.00 1.87 1.67 1.51 1.30 1.24 1.54 1.65 1.58 1.46 1.43 1.39 1.17 1.11 1.00 0.89 0.83 0.77 0.71 0.66 0.68 0.73 0.87
0.74 0.84 0.93 0.87 0.86 0.90 0.92 0.98 1.00 1.04 1.08 1.18 1.27 1.40 1.58 1.84 2.18 2.38 2.45 2.34 2.17 2.03 1.91 1.77 1.44 1.21 1.33 1.66 1.79 1.73 1.53 1.38 1.24 1.16 1.03 0.91 0.84 0.75 0.69 0.67 0.66 0.66 0.67
0.58 0.63 0.72 0.72 0.81 0.90 0.92 0.95 0.96 0.99 1.02 1.11 1.24 1.30 1.35 1.53 1.73 1.93 2.11 2.24 2.21 2.18 2.17 1.94 1.64 1.37 1.30 1.43 1.68 1.69 1.62 1.62 1.39 1.31 1.30 1.16 1.02 0.92 0.81 0.72 0.70 0.67 0.63
0.65 0.70 0.80 0.83 0.78 0.77 0.82 0.93 0.98 0.93 0.91 0.94 1.02 1.12 1.20 1.25 1.42 1.54 1.65 1.85 2.06 2.29 2.37 2.22 1.95 1.62 1.49 1.38 1.48 1.65 1.71 1.68 1.60 1.41 1.37 1.26 1.24 1.18 1.06 0.90 0.76 0.69 0.70
0.71 0.72 0.81 0.91 0.96 0.90 0.88 0.96 0.93 0.92 0.92 0.90 0.93 0.94 1.00 1.02 1.08 1.26 1.31 1.53 1.86 2.12 2.22 2.30 2.16 1.86 1.59 1.41 1.20 1.31 1.57 1.80 1.81 1.73 1.72 1.47 1.34 1.20 1.12 1.08 1.00 0.87 0.77
0.58 0.57 0.60 0.66 0.75 0.80 1.01 0.97 0.81 0.76 0.82 0.88 0.92 0.91 0.93 0.86 0.84 0.90 1.03 1.16 1.46 1.68 1.82 1.90 1.92 1.76 1.54 1.41 1.36 1.33 1.40 1.55 1.61 1.50 1.55 1.62 1.55 1.40 1.30 1.18 1.19 1.22 1.13
0.47 0.45 0.45 0.45 0.51 0.67 0.77 0.60 0.58 0.62 0.76 0.87 0.94 0.97 0.93 0.86 0.90 0.90 0.92 0.93 1.00 1.18 1.40 1.61 1.64 1.54 1.59 1.51 1.43 1.33 1.34 1.36 1.35 1.45 1.53 1.60 1.59 1.47 1.41 1.39 1.41 1.31 1.24
0.39 0.38 0.44 0.51 0.52 0.55 0.63 0.52 0.49 0.58 0.77 0.90 0.90 0.86 0.93 0.93 0.95 1.01 0.94 1.01 0.97 0.95 1.04 1.09 1.23 1.43 1.58 1.75 1.73 1.62 1.63 1.56 1.47 1.58 1.60 1.55 1.46 1.38 1.29 1.26 1.32 1.20 1.11
0.44 0.44 0.54 0.62 0.56 0.50 0.56 0.56 0.59 0.72 0.84 0.91 0.88 0.88 0.95 1.00 1.12 1.17 1.07 1.13 1.09 1.06 1.03 1.13 1.22 1.33 1.42 1.54 1.69 1.73 1.69 1.66 1.52 1.45 1.47 1.42 1.31 1.32 1.31 1.20 1.12 1.12 1.02
0.39 0.46 0.48 0.45 0.46 0.53 0.62 0.59 0.68 0.84 0.96 1.06 1.02 1.01 1.19 1.15 1.13 1.08 1.05 1.19 1.16 1.02 0.95 0.99 1.04 1.13 1.17 1.27 1.40 1.45 1.58 1.65 1.56 1.41 1.24 1.22 1.22 1.26 1.30 1.19 1.08 1.01 0.98

GEFSMA_prec_meanprecacc_246.txt.gz
Total_Precipitation_Accumulation
1.03 0.99 0.91 0.92 0.85 0.96 1.12 1.23 1.20 1.13 1.12 1.04 0.95 1.05 1.11 1.23 1.27 1.34 1.49 1.62 1.86 2.29 2.64 2.62 2.32 2.04 1.93 1.90 1.96 1.97 2.01 2.15 2.14 2.14 2.17 2.10 2.04 1.90 1.84 1.82 1.76 1.68 1.77
1.02 1.01 0.99 1.01 0.98 1.02 1.15 1.19 1.11 1.18 1.27 1.16 0.97 0.98 1.09 1.18 1.26 1.28 1.34 1.51 1.67 1.89 2.43 2.76 2.66 2.43 2.37 2.22 2.31 2.28 2.19 2.01 1.96 2.03 2.04 2.04 2.05 1.88 1.77 1.71 1.67 1.59 1.61
0.90 0.95 0.97 0.97 1.02 1.13 1.21 1.27 1.11 1.16 1.17 1.09 1.03 0.99 1.01 1.06 1.10 1.15 1.13 1.22 1.37 1.59 2.03 2.46 2.75 2.77 2.81 2.70 2.58 2.40 2.15 1.93 1.89 1.92 1.95 1.87 1.93 1.86 1.76 1.78 1.68 1.67 1.64
0.83 0.97 0.99 0.97 0.99 1.15 1.29 1.38 1.30 1.29 1.26 1.21 1.18 1.10 1.00 1.08 1.03 1.07 1.11 1.12 1.30 1.29 1.57 1.89 2.18 2.45 2.77 2.74 2.53 2.40 2.16 1.81 1.70 1.80 1.84 1.71 1.77 1.83 1.70 1.79 1.71 1.64 1.59
0.93 1.12 1.22 1.21 1.20 1.23 1.27 1.27 1.37 1.40 1.40 1.36 1.28 1.22 1.13 1.09 1.15 1.07 1.11 1.17 1.17 1.23 1.39 1.48 1.61 1.73 2.11 2.36 2.43 2.58 2.44 1.95 1.68 1.74 1.81 1.63 1.64 1.80 1.67 1.65 1.62 1.49 1.42
1.28 1.46 1.45 1.53 1.59 1.49 1.47 1.44 1.49 1.46 1.40 1.43 1.31 1.20 1.14 1.07 1.20 1.26 1.22 1.25 1.23 1.20 1.45 1.57 1.53 1.33 1.54 1.87 2.16 2.52 2.69 2.30 1.95 1.81 1.89 1.77 1.66 1.83 1.66 1.61 1.61 1.38 1.31
1.57 1.82 1.79 1.88 1.95 1.87 1.82 1.82 2.05 2.00 1.72 1.49 1.56 1.40 1.23 1.12 1.29 1.37 1.31 1.37 1.45 1.51 1.62 1.63 1.52 1.36 1.21 1.29 1.53 2.04 2.65 2.54 2.30 2.03 2.00 1.91 1.71 1.67 1.50 1.49 1.52 1.42 1.28
1.49 1.63 1.91 2.05 2.03 2.13 2.24 2.21 2.59 2.72 2.24 1.80 1.84 2.04 1.79 1.61 1.43 1.31 1.32 1.36 1.52 1.72 1.76 1.60 1.47 1.30 1.16 1.17 1.02 1.39 2.00 2.34 2.38 2.25 2.08 1.89 1.73 1.57 1.50 1.55 1.52 1.56 1.42
1.46 1.58 1.73 1.89 1.93 2.05 2.20 2.30 2.64 3.17 2.93 2.30 2.07 2.42 2.19 1.98 1.86 1.52 1.32 1.34 1.46 1.74 1.97 1.87 1.64 1.44 1.26 1.27 1.15 1.15 1.37 1.68 2.21 2.42 2.33 2.08 1.95 1.70 1.60 1.73 1.56 1.68 1.70
1.35 1.44 1.57 1.71 1.84 1.88 2.03 2.12 2.26 2.80 3.20 2.88 2.55 2.22 1.91 1.87 2.03 1.94 1.57 1.45 1.48 1.61 1.80 1.79 1.67 1.62 1.46 1.34 1.22 1.11 1.17 1.32 1.87 2.29 2.50 2.42 2.24 1.99 1.96 2.14 1.88 1.74 1.74
1.45 1.45 1.58 1.66 1.68 1.75 1.87 2.21 2.47 2.76 3.00 2.98 2.92 2.71 2.44 2.16 1.83 2.05 2.05 1.77 1.63 1.58 1.62 1.66 1.61 1.62 1.60 1.52 1.57 1.33 1.16 1.17 1.41 1.87 2.36 2.68 2.56 2.35 2.43 2.52 2.15 1.99 1.91
1.58 1.60 1.65 1.66 1.63 1.68 1.79 2.04 2.33 2.55 2.85 3.05 2.97 2.79 2.66 2.53 2.31 2.22 2.07 1.93 1.91 1.72 1.58 1.55 1.47 1.48 1.59 1.72 1.68 1.65 1.29 1.07 1.09 1.39 1.75 2.14 2.41 2.51 2.69 2.72 2.46 2.42 2.27
1.50 1.52 1.60 1.72 1.79 1.83 1.95 2.13 2.28 2.20 2.40 2.79 2.81 2.66 2.58 2.38 2.35 2.44 2.34 2.04 1.90 1.60 1.47 1.42 1.36 1.46 1.44 1.49 1.70 1.86 1.41 1.14 0.97 1.21 1.40 1.52 1.75 2.11 2.55 2.79 2.82 2.83 2.70
1.44 1.37 1.40 1.50 1.63 1.81 1.87 1.92 1.95 1.92 2.03 2.27 2.37 2.56 2.67 2.43 2.31 2.23 2.19 2.23 2.01 1.71 1.52 1.39 1.29 1.31 1.33 1.37 1.59 1.75 1.39 1.21 0.93 0.91 1.04 1.23 1.33 1.49 1.82 2.25 2.65 2.80 2.88
1.18 1.09 1.09 1.15 1.23 1.30 1.39 1.54 1.64 1.76 1.80 1.92 2.07 2.22 2.38 2.51 2.43 2.22 2.15 2.12 2.10 1.91 1.67 1.53 1.38 1.20 1.29 1.41 1.64 1.44 1.33 1.32 1.11 0.96 0.90 0.96 1.09 1.17 1.31 1.47 1.69 1.96 2.32
1.10 1.01 0.97 0.94 0.93 0.89 0.93 1.13 1.34 1.47 1.55 1.70 1.89 2.03 2.08 2.15 2.33 2.29 2.10 2.07 1.99 1.88 1.74 1.54 1.43 1.30 1.46 1.39 1.55 1.38 1.38 1.45 1.17 1.07 0.97 0.91 0.91 0.87 0.85 0.92 0.98 1.10 1.45
1.09 1.06 0.97 0.91 0.99 1.00 0.96 1.02 1.09 1.16 1.22 1.36 1.50 1.63 1.78 2.04 2.34 2.35 2.29 2.16 2.03 1.90 1.70 1.53 1.33 1.26 1.56 1.66 1.59 1.47 1.44 1.40 1.18 1.12 1.02 0.90 0.84 0.79 0.73 0.67 0.69 0.74 0.89
0.75 0.85 0.94 0.88 0.86 0.90 0.93 0.98 1.00 1.05 1.09 1.19 1.28 1.41 1.59 1.86 2.19 2.40 2.48 2.37 2.20 2.05 1.93 1.79 1.47 1.23 1.35 1.67 1.80 1.74 1.53 1.39 1.24 1.17 1.04 0.92 0.84 0.76 0.69 0.67 0.67 0.67 0.68
0.59 0.63 0.72 0.72 0.81 0.90 0.93 0.96 0.96 1.00 1.03 1.11 1.25 1.31 1.36 1.54 1.73 1.93 2.12 2.25 2.23 2.20 2.19 1.96 1.66 1.39 1.32 1.44 1.68 1.70 1.63 1.62 1.39 1.31 1.30 1.16 1.02 0.92 0.81 0.72 0.71 0.68 0.64
0.66 0.71 0.81 0.84 0.78 0.77 0.82 0.94 0.98 0.94 0.92 0.95 1.03 1.12 1.21 1.25 1.42 1.55 1.66 1.86 2.06 2.30 2.38 2.23 1.95 1.63 1.50 1.38 1.49 1.65 1.72 1.68 1.60 1.41 1.37 1.26 1.24 1.18 1.06 0.90 0.77 0.70 0.70
0.71 0.73 0.82 0.91 0.96 0.91 0.88 0.97 0.94 0.93 0.92 0.90 0.94 0.94 1.01 1.03 1.09 1.27 1.32 1.54 1.86 2.12 2.23 2.30 2.17 1.86 1.59 1.41 1.20 1.31 1.58 1.80 1.81 1.73 1.72 1.47 1.34 1.20 1.12 1.08 1.01 0.87 0.77
0.58 0.57 0.60 0.67 0.76 0.81 1.03 0.99 0.82 0.78 0.83 0.88 0.93 0.92 0.94 0.87 0.85 0.91 1.04 1.17 1.47 1.68 1.82 1.90 1.92 1.76 1.54 1.41 1.36 1.33 1.40 1.55 1.61 1.50 1.56 1.63 1.56 1.40 1.31 1.19 1.19 1.22 1.13
0.48 0.46 0.45 0.46 0.52 0.68 0.78 0.61 0.59 0.63 0.77 0.88 0.95 0.98 0.95 0.88 0.91 0.92 0.93 0.94 1.01 1.18 1.40 1.61 1.64 1.54 1.60 1.51 1.44 1.33 1.35 1.36 1.35 1.45 1.53 1.60 1.59 1.48 1.41 1.39 1.41 1.31 1.25
0.41 0.40 0.44 0.51 0.53 0.56 0.64 0.53 0.50 0.59 0.79 0.91 0.91 0.87 0.94 0.95 0.97 1.03 0.95 1.02 0.97 0.95 1.05 1.10 1.23 1.43 1.58 1.76 1.74 1.63 1.63 1.56 1.47 1.58 1.60 1.56 1.46 1.38 1.29 1.26 1.32 1.20 1.11
0.46 0.46 0.56 0.63 0.57 0.50 0.56 0.56 0.59 0.72 0.85 0.93 0.89 0.90 0.97 1.01 1.14 1.18 1.09 1.14 1.10 1.07 1.04 1.15 1.24 1.34 1.43 1.55 1.70 1.74 1.70 1.66 1.52 1.46 1.47 1.43 1.31 1.33 1.31 1.20 1.12 1.12 1.03
0.40 0.47 0.48 0.46 0.47 0.54 0.62 0.59 0.69 0.85 0.99 1.08 1.04 1.03 1.22 1.17 1.16 1.11 1.07 1.21 1.18 1.05 0.97 1.01 1.07 1.15 1.19 1.28 1.42 1.47 1.59 1.66 1.57 1.42 1.24 1.22 1.23 1.26 1.31 1.20 1.08 1.01 0.98

GEFSMA_prec_meanprecacc_252.txt.gz
Total_Precipitation_Accumulation
1.04 1.00 0.93 0.93 0.85 0.97 1.13 1.23 1.20 1.14 1.15 1.11 1.00 1.09 1.17 1.25 1.28 1.36 1.51 1.66 1.93 2.39 2.72 2.69 2.38 2.09 1.98 1.95 2.00 2.01 2.05 2.18 2.18 2.17 2.21 2.14 2.08 1.95 1.89 1.87 1.79 1.72 1.81
1.02 1.02 0.99 1.02 0.99 1.04 1.18 1.20 1.12 1.18 1.28 1.19 1.02 1.02 1.13 1.20 1.28 1.30 1.36 1.53 1.71 1.96 2.52 2.85 2.74 2.49 2.43 2.28 2.35 2.33 2.23 2.04 1.99 2.08 2.09 2.09 2.10 1.94 1.83 1.76 1.72 1.64 1.65
0.91 0.96 0.98 0.98 1.03 1.15 1.22 1.28 1.12 1.17 1.18 1.12 1.07 1.04 1.05 1.10 1.12 1.17 1.15 1.23 1.38 1.63 2.12 2.57 2.83 2.85 2.89 2.77 2.64 2.48 2.22 1.99 1.94 1.97 2.00 1.92 1.98 1.92 1.80 1.83 1.72 1.73 1.68
0.85 0.99 1.01 0.98 1.01 1.17 1.31 1.39 1.30 1.29 1.28 1.23 1.20 1.14 1.04 1.12 1.05 1.08 1.12 1.12 1.31 1.32 1.65 2.01 2.28 2.53 2.86 2.83 2.62 2.50 2.24 1.88 1.78 1.86 1.90 1.76 1.81 1.86 1.73 1.82 1.74 1.67 1.61
0.94 1.13 1.23 1.22 1.21 1.25 1.28 1.28 1.38 1.41 1.41 1.38 1.29 1.24 1.15 1.12 1.17 1.08 1.12 1.19 1.19 1.26 1.46 1.60 1.72 1.81 2.20 2.44 2.51 2.67 2.52 2.03 1.75 1.80 1.85 1.67 1.67 1.83 1.70 1.67 1.64 1.51 1.44
1.28 1.46 1.46 1.54 1.59 1.49 1.49 1.45 1.50 1.47 1.41 1.47 1.34 1.22 1.16 1.10 1.22 1.28 1.26 1.29 1.28 1.25 1.55 1.69 1.64 1.42 1.64 1.97 2.25 2.59 2.75 2.37 2.01 1.86 1.92 1.80 1.69 1.86 1.68 1.62 1.63 1.40 1.33
1.58 1.82 1.80 1.89 1.96 1.87 1.83 1.83 2.06 2.01 1.73 1.54 1.62 1.45 1.28 1.16 1.33 1.41 1.36 1.44 1.51 1.58 1.72 1.74 1.62 1.43 1.28 1.37 1.61 2.11 2.69 2.58 2.34 2.08 2.04 1.94 1.73 1.70 1.51 1.50 1.53 1.44 1.30
1.50 1.64 1.91 2.05 2.03 2.13 2.25 2.22 2.59 2.73 2.25 1.82 1.87 2.07 1.83 1.66 1.48 1.35 1.39 1.44 1.59 1.79 1.84 1.70 1.56 1.37 1.22 1.22 1.07 1.43 2.03 2.38 2.42 2.29 2.13 1.93 1.75 1.59 1.52 1.56 1.53 1.58 1.44
1.47 1.58 1.74 1.89 1.93 2.05 2.21 2.31 2.65 3.18 2.94 2.31 2.08 2.44 2.22 2.01 1.90 1.58 1.40 1.42 1.52 1.80 2.05 1.96 1.72 1.51 1.31 1.31 1.17 1.17 1.39 1.70 2.23 2.45 2.38 2.13 1.97 1.72 1.62 1.74 1.58 1.71 1.73
1.35 1.44 1.58 1.71 1.84 1.88 2.03 2.13 2.26 2.81 3.21 2.89 2.57 2.24 1.94 1.90 2.06 1.99 1.64 1.51 1.54 1.67 1.88 1.87 1.74 1.67 1.50 1.36 1.24 1.12 1.18 1.33 1.88 2.32 2.56 2.48 2.28 2.02 1.99 2.16 1.90 1.77 1.77
1.45 1.45 1.59 1.66 1.69 1.76 1.88 2.21 2.48 2.76 3.01 3.00 2.93 2.73 2.46 2.19 1.86 2.08 2.09 1.81 1.69 1.64 1.69 1.72 1.65 1.65 1.62 1.53 1.58 1.34 1.17 1.18 1.42 1.90 2.42 2.75 2.60 2.37 2.46 2.55 2.18 2.01 1.94
1.58 1.61 1.65 1.66 1.64 1.69 1.80 2.05 2.34 2.56 2.87 3.07 2.99 2.81 2.69 2.56 2.34 2.24 2.09 1.97 1.96 1.78 1.64 1.59 1.50 1.51 1.61 1.73 1.69 1.66 1.30 1.09 1.10 1.41 1.77 2.18 2.46 2.54 2.73 2.76 2.49 2.45 2.30
1.51 1.53 1.61 1.72 1.80 1.84 1.96 2.14 2.29 2.21 2.41 2.80 2.83 2.69 2.61 2.42 2.39 2.46 2.36 2.07 1.94 1.65 1.51 1.46 1.40 1.49 1.46 1.50 1.71 1.87 1.43 1.15 0.98 1.22 1.41 1.53 1.77 2.14 2.58 2.83 2.86 2.88 2.75
1.45 1.38 1.41 1.51 1.63 1.82 1.88 1.93 1.96 1.93 2.03 2.29 2.39 2.58 2.68 2.45 2.35 2.26 2.22 2.26 2.04 1.75 1.56 1.43 1.32 1.35 1.35 1.38 1.60 1.76 1.40 1.22 0.93 0.92 1.06 1.24 1.34 1.51 1.84 2.27 2.68 2.88 2.95
1.18 1.10 1.10 1.16 1.24 1.31 1.39 1.54 1.64 1.77 1.81 1.93 2.09 2.23 2.40 2.52 2.45 2.24 2.18 2.16 2.14 1.94 1.70 1.56 1.41 1.22 1.30 1.42 1.64 1.44 1.34 1.32 1.11 0.97 0.91 0.97 1.10 1.18 1.32 1.48 1.73 2.08 2.39
1.11 1.02 0.98 0.95 0.94 0.91 0.94 1.14 1.34 1.47 1.56 1.71 1.90 2.04 2.09 2.16 2.34 2.30 2.12 2.09 2.02 1.90 1.76 1.56 1.45 1.31 1.47 1.40 1.56 1.39 1.39 1.46 1.18 1.08 0.98 0.92 0.92 0.89 0.87 0.94 1.00 1.13 1.48
1.10 1.07 0.97 0.92 1.01 1.01 0.97 1.03 1.09 1.17 1.23 1.36 1.51 1.64 1.80 2.05 2.35 2.37 2.30 2.18 2.05 1.92 1.71 1.54 1.35 1.27 1.57 1.67 1.60 1.48 1.45 1.41 1.18 1.13 1.02 0.92 0.87 0.81 0.75 0.68 0.69 0.75 0.91
0.76 0.85 0.94 0.88 0.87 0.91 0.93 0.99 1.01 1.06 1.10 1.20 1.30 1.43 1.60 1.87 2.20 2.41 2.50 2.38 2.21 2.07 1.95 1.80 1.48 1.24 1.35 1.68 1.81 1.74 1.54 1.39 1.25 1.18 1.04 0.92 0.86 0.77 0.71 0.68 0.67 0.67 0.68
0.60 0.64 0.73 0.73 0.82 0.90 0.94 0.97 0.97 1.01 1.04 1.12 1.26 1.32 1.37 1.56 1.74 1.94 2.13 2.27 2.25 2.22 2.20 1.97 1.66 1.40 1.33 1.45 1.70 1.71 1.63 1.62 1.40 1.32 1.31 1.17 1.03 0.93 0.82 0.73 0.71 0.69 0.65
0.66 0.71 0.82 0.85 0.79 0.78 0.84 0.95 0.99 0.95 0.93 0.96 1.04 1.13 1.22 1.26 1.43 1.56 1.67 1.87 2.09 2.33 2.40 2.24 1.97 1.64 1.51 1.40 1.50 1.65 1.72 1.68 1.60 1.42 1.38 1.26 1.25 1.18 1.06 0.91 0.78 0.71 0.71
0.72 0.74 0.83 0.92 0.97 0.92 0.89 0.97 0.95 0.94 0.94 0.91 0.95 0.95 1.02 1.04 1.11 1.28 1.33 1.55 1.88 2.16 2.26 2.32 2.19 1.87 1.61 1.43 1.21 1.32 1.58 1.80 1.81 1.73 1.72 1.48 1.34 1.21 1.13 1.09 1.01 0.87 0.78
0.59 0.58 0.61 0.67 0.76 0.82 1.05 1.01 0.83 0.78 0.84 0.89 0.93 0.93 0.95 0.89 0.87 0.93 1.06 1.18 1.48 1.70 1.85 1.93 1.95 1.79 1.57 1.44 1.39 1.34 1.41 1.56 1.61 1.51 1.56 1.63 1.56 1.40 1.31 1.19 1.20 1.22 1.13
0.49 0.46 0.46 0.47 0.52 0.70 0.80 0.63 0.61 0.64 0.77 0.88 0.95 0.99 0.96 0.90 0.92 0.93 0.94 0.95 1.02 1.20 1.42 1.63 1.66 1.56 1.62 1.53 1.46 1.35 1.35 1.37 1.35 1.45 1.54 1.61 1.59 1.48 1.41 1.39 1.42 1.31 1.25
0.41 0.41 0.45 0.52 0.54 0.58 0.66 0.54 0.51 0.59 0.80 0.92 0.92 0.88 0.95 0.96 0.98 1.04 0.96 1.02 0.98 0.96 1.06 1.10 1.24 1.45 1.60 1.77 1.74 1.64 1.64 1.57 1.48 1.58 1.61 1.56 1.46 1.38 1.29 1.27 1.33 1.20 1.11
0.47 0.48 0.58 0.64 0.58 0.52 0.57 0.57 0.60 0.72 0.86 0.94 0.90 0.91 0.98 1.02 1.15 1.20 1.09 1.14 1.11 1.08 1.05 1.16 1.25 1.36 1.45 1.56 1.71 1.75 1.71 1.68 1.53 1.46 1.48 1.43 1.32 1.33 1.32 1.20 1.13 1.13 1.03
0.41 0.48 0.51 0.48 0.48 0.55 0.63 0.60 0.69 0.85 0.99 1.09 1.05 1.04 1.23 1.19 1.18 1.12 1.08 1.22 1.19 1.05 0.98 1.02 1.08 1.17 1.20 1.30 1.43 1.48 1.61 1.68 1.58 1.42 1.24 1.23 1.23 1.27 1.31 1.20 1.08 1.01 0.98

GEFSMA_prec_meanprecacc_258.txt.gz
Total_Precipitation_Accumulation
1.04 1.00 0.93 0.93 0.86 0.97 1.14 1.24 1.21 1.15 1.16 1.12 1.02 1.12 1.19 1.26 1.31 1.38 1.54 1.74 2.02 2.48 2.81 2.77 2.46 2.17 2.05 2.02 2.06 2.07 2.11 2.25 2.24 2.24 2.26 2.19 2.14 2.01 1.97 1.96 1.87 1.79 1.86
1.03 1.02 1.00 1.03 1.00 1.05 1.18 1.20 1.13 1.19 1.29 1.21 1.06 1.08 1.17 1.23 1.30 1.31 1.37 1.56 1.78 2.05 2.63 2.95 2.83 2.59 2.53 2.37 2.43 2.39 2.29 2.11 2.04 2.13 2.15 2.15 2.17 2.00 1.91 1.84 1.79 1.70 1.70
0.91 0.96 0.98 0.98 1.03 1.15 1.23 1.28 1.13 1.18 1.19 1.13 1.11 1.10 1.10 1.13 1.14 1.18 1.16 1.25 1.42 1.71 2.21 2.68 2.94 2.96 2.99 2.86 2.71 2.53 2.28 2.04 2.00 2.04 2.06 1.99 2.06 1.99 1.86 1.89 1.78 1.77 1.72
0.85 0.99 1.01 0.98 1.01 1.17 1.31 1.39 1.31 1.30 1.28 1.24 1.23 1.20 1.10 1.15 1.07 1.09 1.13 1.13 1.32 1.34 1.70 2.11 2.42 2.64 2.94 2.92 2.71 2.57 2.31 1.95 1.84 1.93 1.96 1.82 1.87 1.92 1.78 1.88 1.79 1.70 1.64
0.94 1.13 1.23 1.23 1.22 1.25 1.29 1.29 1.39 1.42 1.41 1.41 1.32 1.28 1.21 1.15 1.18 1.09 1.12 1.20 1.20 1.28 1.50 1.67 1.82 1.95 2.31 2.52 2.59 2.75 2.62 2.12 1.84 1.88 1.93 1.74 1.74 1.90 1.75 1.72 1.69 1.55 1.47
1.29 1.46 1.46 1.54 1.60 1.50 1.49 1.46 1.51 1.47 1.42 1.49 1.38 1.25 1.21 1.13 1.24 1.28 1.26 1.30 1.30 1.28 1.59 1.77 1.72 1.54 1.80 2.08 2.32 2.66 2.83 2.45 2.11 1.96 2.01 1.88 1.76 1.92 1.73 1.66 1.67 1.44 1.37
1.58 1.83 1.80 1.89 1.96 1.87 1.83 1.84 2.07 2.02 1.74 1.56 1.66 1.51 1.32 1.19 1.35 1.41 1.37 1.46 1.53 1.63 1.80 1.82 1.68 1.50 1.37 1.51 1.72 2.20 2.78 2.69 2.45 2.19 2.15 2.01 1.79 1.74 1.56 1.54 1.56 1.47 1.34
1.50 1.64 1.92 2.06 2.04 2.14 2.25 2.24 2.61 2.75 2.26 1.84 1.92 2.16 1.88 1.68 1.51 1.39 1.43 1.48 1.61 1.81 1.88 1.77 1.62 1.43 1.29 1.30 1.18 1.53 2.15 2.50 2.54 2.40 2.22 1.99 1.80 1.63 1.56 1.60 1.56 1.61 1.48
1.47 1.59 1.74 1.89 1.93 2.05 2.22 2.33 2.66 3.20 2.96 2.32 2.13 2.51 2.25 2.05 1.95 1.65 1.47 1.46 1.54 1.82 2.09 2.02 1.78 1.58 1.39 1.39 1.26 1.26 1.48 1.80 2.35 2.55 2.45 2.18 2.01 1.75 1.66 1.77 1.60 1.74 1.76
1.36 1.45 1.59 1.72 1.84 1.88 2.04 2.13 2.27 2.83 3.23 2.91 2.60 2.29 1.98 1.93 2.10 2.07 1.72 1.56 1.57 1.71 1.93 1.92 1.79 1.73 1.58 1.44 1.32 1.21 1.27 1.41 1.95 2.39 2.62 2.54 2.33 2.06 2.03 2.20 1.93 1.80 1.79
1.46 1.45 1.59 1.67 1.69 1.76 1.88 2.22 2.49 2.78 3.02 3.01 2.97 2.77 2.49 2.21 1.89 2.13 2.15 1.85 1.72 1.69 1.75 1.79 1.72 1.72 1.70 1.60 1.65 1.43 1.26 1.24 1.47 1.94 2.48 2.81 2.66 2.43 2.50 2.59 2.21 2.04 1.97
1.58 1.61 1.65 1.66 1.65 1.69 1.81 2.05 2.35 2.58 2.89 3.09 3.03 2.84 2.72 2.60 2.37 2.27 2.13 1.99 1.99 1.83 1.70 1.67 1.57 1.57 1.68 1.79 1.75 1.73 1.36 1.14 1.13 1.43 1.80 2.23 2.52 2.60 2.78 2.80 2.52 2.48 2.34
1.51 1.53 1.61 1.73 1.80 1.85 1.97 2.15 2.30 2.24 2.44 2.83 2.86 2.72 2.64 2.46 2.42 2.48 2.39 2.09 1.96 1.68 1.56 1.52 1.44 1.52 1.51 1.54 1.75 1.90 1.46 1.18 1.00 1.24 1.43 1.56 1.80 2.19 2.64 2.88 2.89 2.90 2.78
1.45 1.39 1.42 1.51 1.65 1.83 1.89 1.95 2.00 1.96 2.06 2.31 2.42 2.60 2.70 2.47 2.37 2.28 2.24 2.29 2.07 1.77 1.59 1.46 1.35 1.37 1.37 1.40 1.63 1.78 1.42 1.24 0.95 0.93 1.07 1.25 1.37 1.55 1.89 2.32 2.71 2.90 2.99
1.19 1.11 1.11 1.17 1.25 1.32 1.42 1.58 1.68 1.79 1.83 1.96 2.11 2.24 2.40 2.53 2.46 2.27 2.21 2.19 2.16 1.96 1.73 1.59 1.43 1.24 1.32 1.44 1.66 1.46 1.35 1.33 1.12 0.98 0.92 0.99 1.13 1.20 1.34 1.51 1.76 2.11 2.42
1.11 1.02 0.98 0.96 0.95 0.92 0.96 1.16 1.37 1.49 1.57 1.72 1.91 2.05 2.09 2.17 2.35 2.32 2.14 2.12 2.04 1.93 1.79 1.58 1.48 1.33 1.48 1.41 1.57 1.39 1.40 1.46 1.19 1.09 0.99 0.93 0.94 0.90 0.88 0.94 1.02 1.17 1.51
1.10 1.07 0.97 0.92 1.02 1.03 0.98 1.04 1.11 1.18 1.25 1.38 1.52 1.65 1.80 2.06 2.35 2.38 2.32 2.19 2.07 1.94 1.73 1.57 1.38 1.29 1.57 1.68 1.60 1.48 1.45 1.41 1.19 1.14 1.03 0.93 0.88 0.82 0.76 0.69 0.70 0.77 0.92
0.76 0.86 0.95 0.89 0.87 0.92 0.94 0.99 1.02 1.06 1.11 1.21 1.31 1.44 1.61 1.88 2.21 2.42 2.51 2.40 2.23 2.09 1.96 1.81 1.49 1.25 1.36 1.68 1.82 1.75 1.55 1.40 1.25 1.18 1.05 0.93 0.87 0.79 0.72 0.70 0.69 0.68 0.69
0.60 0.64 0.73 0.73 0.82 0.91 0.94 0.98 0.98 1.01 1.05 1.13 1.27 1.33 1.38 1.57 1.76 1.95 2.14 2.28 2.26 2.23 2.21 1.98 1.67 1.40 1.33 1.46 1.70 1.72 1.65 1.63 1.41 1.33 1.32 1.19 1.05 0.95 0.84 0.75 0.74 0.70 0.66
0.66 0.71 0.82 0.85 0.80 0.79 0.84 0.95 0.99 0.95 0.94 0.96 1.05 1.15 1.23 1.27 1.44 1.57 1.68 1.88 2.10 2.34 2.40 2.24 1.97 1.65 1.52 1.41 1.51 1.66 1.73 1.69 1.61 1.43 1.39 1.28 1.27 1.20 1.08 0.93 0.79 0.72 0.72
0.73 0.74 0.83 0.93 0.98 0.92 0.90 0.98 0.95 0.94 0.94 0.92 0.96 0.96 1.03 1.05 1.12 1.30 1.34 1.56 1.89 2.17 2.27 2.33 2.20 1.88 1.61 1.44 1.22 1.33 1.59 1.82 1.83 1.74 1.74 1.49 1.36 1.22 1.14 1.10 1.02 0.89 0.79
0.61 0.59 0.62 0.69 0.77 0.83 1.07 1.02 0.84 0.79 0.84 0.89 0.94 0.93 0.96 0.90 0.88 0.94 1.07 1.19 1.49 1.71 1.86 1.95 1.96 1.79 1.58 1.45 1.40 1.35 1.42 1.57 1.62 1.52 1.57 1.64 1.57 1.41 1.32 1.20 1.21 1.23 1.14
0.50 0.47 0.47 0.47 0.53 0.70 0.81 0.65 0.62 0.65 0.78 0.88 0.95 0.99 0.97 0.90 0.93 0.94 0.95 0.96 1.03 1.21 1.43 1.64 1.67 1.57 1.63 1.54 1.47 1.36 1.36 1.37 1.36 1.46 1.54 1.61 1.59 1.48 1.41 1.40 1.42 1.32 1.26
0.42 0.41 0.46 0.52 0.54 0.59 0.67 0.56 0.52 0.60 0.80 0.92 0.92 0.88 0.95 0.97 0.99 1.04 0.97 1.03 0.98 0.96 1.06 1.11 1.25 1.46 1.61 1.78 1.76 1.65 1.64 1.57 1.48 1.58 1.61 1.56 1.46 1.38 1.29 1.27 1.33 1.21 1.12
0.49 0.49 0.59 0.65 0.59 0.54 0.59 0.58 0.61 0.73 0.87 0.95 0.91 0.92 0.99 1.03 1.16 1.21 1.10 1.15 1.11 1.08 1.05 1.16 1.26 1.37 1.46 1.58 1.73 1.76 1.72 1.68 1.53 1.46 1.48 1.43 1.32 1.33 1.32 1.20 1.13 1.13 1.03
0.45 0.52 0.53 0.49 0.49 0.57 0.64 0.61 0.70 0.87 1.00 1.10 1.06 1.05 1.24 1.20 1.19 1.13 1.09 1.23 1.19 1.06 0.98 1.03 1.08 1.17 1.21 1.32 1.45 1.49 1.62 1.68 1.59 1.42 1.24 1.23 1.23 1.27 1.31 1.20 1.08 1.01 0.98

GEFSMA_prec_meanprecacc_264.txt.gz
Total_Precipitation_Accumulation
1.06 1.01 0.93 0.94 0.87 0.98 1.14 1.25 1.21 1.15 1.16 1.13 1.03 1.14 1.22 1.30 1.34 1.43 1.60 1.82 2.12 2.60 2.93 2.86 2.55 2.26 2.13 2.09 2.12 2.11 2.15 2.30 2.30 2.30 2.32 2.25 2.19 2.08 2.05 2.06 1.95 1.88 1.94
1.04 1.03 1.01 1.04 1.00 1.05 1.19 1.21 1.13 1.20 1.29 1.21 1.07 1.11 1.20 1.26 1.33 1.35 1.42 1.61 1.85 2.12 2.71 3.05 2.92 2.70 2.67 2.47 2.52 2.46 2.35 2.16 2.10 2.19 2.20 2.20 2.21 2.06 1.97 1.91 1.86 1.77 1.75
0.92 0.97 0.99 1.00 1.05 1.16 1.23 1.29 1.14 1.18 1.19 1.13 1.13 1.13 1.13 1.16 1.17 1.20 1.19 1.28 1.46 1.75 2.26 2.75 3.04 3.08 3.13 3.01 2.84 2.63 2.35 2.11 2.05 2.10 2.12 2.05 2.11 2.04 1.93 1.95 1.84 1.83 1.77
0.85 1.00 1.02 1.00 1.02 1.18 1.31 1.40 1.33 1.31 1.29 1.25 1.25 1.23 1.15 1.18 1.09 1.11 1.15 1.16 1.35 1.37 1.73 2.17 2.51 2.73 3.05 3.05 2.88 2.71 2.41 2.03 1.90 1.99 2.04 1.89 1.93 1.98 1.85 1.94 1.84 1.74 1.68
0.95 1.14 1.24 1.24 1.22 1.26 1.29 1.30 1.40 1.43 1.42 1.42 1.33 1.30 1.26 1.18 1.20 1.10 1.14 1.22 1.24 1.32 1.56 1.76 1.92 2.03 2.42 2.64 2.75 2.90 2.73 2.23 1.93 1.97 2.02 1.84 1.83 1.98 1.84 1.78 1.74 1.58 1.51
1.30 1.47 1.47 1.55 1.60 1.50 1.50 1.47 1.53 1.48 1.43 1.50 1.40 1.28 1.25 1.16 1.26 1.29 1.27 1.32 1.33 1.32 1.65 1.83 1.78 1.60 1.90 2.22 2.46 2.76 2.90 2.57 2.27 2.10 2.13 1.99 1.86 2.03 1.82 1.72 1.72 1.49 1.41
1.59 1.84 1.81 1.90 1.97 1.88 1.84 1.85 2.08 2.02 1.74 1.57 1.67 1.53 1.37 1.23 1.37 1.42 1.39 1.49 1.57 1.67 1.86 1.91 1.73 1.54 1.43 1.62 1.86 2.28 2.84 2.75 2.56 2.33 2.27 2.13 1.89 1.84 1.62 1.59 1.62 1.52 1.37
1.50 1.65 1.93 2.07 2.05 2.15 2.26 2.25 2.63 2.76 2.27 1.84 1.93 2.18 1.93 1.72 1.54 1.40 1.45 1.52 1.65 1.85 1.94 1.83 1.66 1.46 1.31 1.34 1.33 1.72 2.25 2.57 2.63 2.51 2.37 2.15 1.94 1.72 1.62 1.65 1.62 1.66 1.50
1.48 1.59 1.75 1.90 1.94 2.07 2.23 2.35 2.68 3.22 2.97 2.34 2.15 2.55 2.31 2.08 1.98 1.68 1.52 1.51 1.57 1.83 2.11 2.04 1.80 1.59 1.39 1.40 1.33 1.49 1.74 1.96 2.47 2.69 2.62 2.36 2.15 1.84 1.73 1.84 1.65 1.79 1.80
1.36 1.45 1.59 1.72 1.85 1.89 2.05 2.15 2.29 2.85 3.25 2.92 2.63 2.34 2.01 1.96 2.13 2.11 1.78 1.60 1.59 1.72 1.94 1.93 1.80 1.74 1.58 1.45 1.34 1.30 1.52 1.69 2.16 2.57 2.81 2.70 2.45 2.14 2.12 2.28 1.98 1.84 1.82
1.46 1.46 1.59 1.67 1.70 1.77 1.89 2.23 2.50 2.79 3.04 3.03 3.02 2.81 2.52 2.23 1.91 2.16 2.20 1.89 1.76 1.71 1.77 1.81 1.73 1.73 1.71 1.62 1.67 1.46 1.37 1.48 1.67 2.11 2.65 2.96 2.77 2.51 2.57 2.66 2.27 2.07 2.00
1.59 1.61 1.66 1.67 1.65 1.70 1.82 2.06 2.37 2.60 2.92 3.13 3.08 2.89 2.75 2.62 2.38 2.30 2.17 2.02 2.03 1.86 1.74 1.71 1.60 1.59 1.71 1.83 1.80 1.79 1.47 1.29 1.29 1.54 1.91 2.35 2.61 2.66 2.82 2.84 2.57 2.53 2.37
1.52 1.54 1.61 1.73 1.82 1.86 1.98 2.16 2.32 2.26 2.46 2.87 2.89 2.75 2.66 2.49 2.44 2.50 2.44 2.13 1.98 1.71 1.59 1.57 1.48 1.56 1.56 1.60 1.83 1.99 1.57 1.29 1.11 1.32 1.49 1.60 1.83 2.23 2.68 2.92 2.93 2.95 2.82
1.46 1.40 1.43 1.53 1.66 1.84 1.90 1.97 2.01 1.98 2.08 2.34 2.45 2.62 2.72 2.49 2.40 2.31 2.29 2.33 2.10 1.80 1.62 1.50 1.38 1.41 1.43 1.47 1.71 1.86 1.52 1.33 1.01 0.98 1.10 1.27 1.38 1.56 1.93 2.37 2.75 2.95 3.04
1.19 1.12 1.12 1.18 1.26 1.34 1.44 1.60 1.70 1.81 1.85 1.98 2.13 2.26 2.42 2.54 2.48 2.30 2.27 2.25 2.20 1.99 1.77 1.63 1.46 1.28 1.38 1.50 1.73 1.51 1.42 1.39 1.15 1.00 0.94 1.00 1.14 1.21 1.36 1.53 1.79 2.14 2.47
1.12 1.04 0.99 0.97 0.97 0.93 0.97 1.16 1.37 1.50 1.58 1.74 1.92 2.06 2.11 2.18 2.36 2.34 2.19 2.18 2.09 1.97 1.82 1.61 1.51 1.36 1.52 1.46 1.62 1.42 1.43 1.50 1.21 1.10 1.00 0.94 0.95 0.91 0.89 0.96 1.04 1.19 1.55
1.11 1.08 0.98 0.93 1.04 1.04 0.98 1.04 1.11 1.18 1.25 1.39 1.53 1.67 1.82 2.07 2.37 2.40 2.34 2.22 2.12 1.99 1.77 1.60 1.41 1.33 1.61 1.72 1.64 1.50 1.47 1.43 1.20 1.15 1.04 0.93 0.88 0.83 0.77 0.70 0.71 0.78 0.94
0.77 0.86 0.95 0.89 0.88 0.92 0.94 1.00 1.02 1.06 1.11 1.22 1.32 1.45 1.62 1.90 2.23 2.44 2.53 2.42 2.26 2.12 1.99 1.85 1.53 1.29 1.40 1.72 1.85 1.77 1.57 1.42 1.27 1.20 1.06 0.94 0.87 0.80 0.74 0.72 0.70 0.70 0.71
0.61 0.64 0.73 0.73 0.82 0.91 0.94 0.98 0.98 1.02 1.05 1.13 1.28 1.34 1.39 1.58 1.77 1.96 2.16 2.30 2.27 2.24 2.23 1.99 1.70 1.43 1.37 1.49 1.73 1.74 1.67 1.65 1.42 1.34 1.33 1.19 1.06 0.95 0.85 0.77 0.76 0.72 0.68
0.67 0.72 0.82 0.85 0.81 0.79 0.84 0.95 1.00 0.96 0.94 0.97 1.06 1.16 1.24 1.28 1.44 1.58 1.69 1.90 2.12 2.35 2.41 2.25 1.99 1.67 1.55 1.43 1.53 1.68 1.75 1.70 1.62 1.43 1.39 1.28 1.27 1.21 1.09 0.94 0.81 0.73 0.73
0.73 0.75 0.84 0.93 0.99 0.94 0.91 0.98 0.95 0.95 0.95 0.92 0.96 0.97 1.03 1.06 1.12 1.30 1.34 1.57 1.91 2.18 2.28 2.33 2.20 1.89 1.63 1.45 1.23 1.33 1.60 1.82 1.83 1.75 1.74 1.49 1.36 1.23 1.15 1.11 1.03 0.89 0.80
0.62 0.60 0.63 0.69 0.77 0.84 1.09 1.03 0.85 0.80 0.85 0.90 0.94 0.93 0.96 0.90 0.88 0.95 1.07 1.20 1.50 1.72 1.86 1.95 1.96 1.80 1.58 1.46 1.41 1.36 1.42 1.57 1.63 1.52 1.57 1.64 1.57 1.42 1.32 1.21 1.22 1.24 1.15
0.51 0.48 0.48 0.48 0.53 0.71 0.82 0.65 0.63 0.66 0.78 0.89 0.96 0.99 0.97 0.90 0.93 0.94 0.96 0.97 1.03 1.21 1.43 1.65 1.68 1.57 1.63 1.55 1.48 1.36 1.36 1.38 1.36 1.47 1.55 1.62 1.60 1.49 1.42 1.41 1.43 1.32 1.26
0.44 0.43 0.47 0.54 0.56 0.60 0.68 0.56 0.52 0.60 0.81 0.93 0.92 0.88 0.96 0.97 0.99 1.05 0.99 1.04 0.99 0.97 1.07 1.11 1.25 1.46 1.62 1.79 1.77 1.65 1.65 1.57 1.48 1.58 1.61 1.57 1.47 1.39 1.30 1.27 1.34 1.21 1.12
0.51 0.51 0.61 0.67 0.62 0.56 0.61 0.59 0.62 0.74 0.88 0.96 0.91 0.92 1.00 1.04 1.17 1.21 1.11 1.16 1.12 1.09 1.06 1.17 1.27 1.38 1.48 1.60 1.75 1.78 1.73 1.68 1.54 1.47 1.48 1.44 1.32 1.33 1.32 1.20 1.13 1.13 1.03
0.47 0.54 0.56 0.52 0.52 0.60 0.67 0.63 0.71 0.87 1.00 1.11 1.07 1.06 1.26 1.22 1.21 1.14 1.09 1.23 1.20 1.06 0.99 1.03 1.09 1.18 1.22 1.33 1.47 1.52 1.64 1.70 1.60 1.44 1.25 1.23 1.23 1.27 1.31 1.20 1.08 1.01 0.98

GEFSMA_prec_meanprecacc_270.txt.gz
Total_Precipitation_Accumulation
1.09 1.05 0.97 0.97 0.89 1.00 1.16 1.26 1.23 1.16 1.17 1.14 1.05 1.17 1.25 1.34 1.40 1.47 1.65 1.88 2.18 2.68 3.02 2.95 2.62 2.30 2.17 2.13 2.17 2.17 2.19 2.33 2.33 2.34 2.38 2.31 2.24 2.14 2.12 2.13 2.04 1.97 2.02
1.06 1.05 1.03 1.05 1.02 1.06 1.20 1.23 1.15 1.20 1.30 1.23 1.09 1.13 1.23 1.29 1.37 1.38 1.46 1.67 1.90 2.17 2.78 3.14 3.01 2.76 2.71 2.51 2.57 2.52 2.41 2.22 2.16 2.26 2.25 2.24 2.27 2.13 2.04 1.97 1.92 1.84 1.83
0.92 0.98 1.00 1.01 1.06 1.17 1.24 1.31 1.15 1.19 1.20 1.14 1.15 1.15 1.14 1.18 1.20 1.23 1.22 1.32 1.48 1.77 2.29 2.79 3.08 3.13 3.18 3.06 2.92 2.71 2.43 2.19 2.13 2.17 2.18 2.09 2.16 2.10 1.98 2.00 1.89 1.88 1.83
0.86 1.01 1.04 1.02 1.04 1.20 1.33 1.42 1.35 1.34 1.31 1.27 1.27 1.25 1.17 1.21 1.12 1.13 1.17 1.19 1.38 1.39 1.75 2.20 2.54 2.78 3.11 3.12 2.96 2.79 2.49 2.11 1.99 2.08 2.12 1.94 1.97 2.01 1.91 1.99 1.88 1.79 1.74
0.96 1.15 1.26 1.26 1.24 1.28 1.32 1.32 1.42 1.47 1.44 1.44 1.35 1.32 1.29 1.21 1.23 1.13 1.15 1.25 1.26 1.35 1.59 1.81 1.98 2.11 2.50 2.72 2.84 3.01 2.83 2.34 2.05 2.07 2.10 1.90 1.87 2.02 1.90 1.86 1.80 1.63 1.56
1.31 1.48 1.48 1.57 1.62 1.53 1.53 1.49 1.54 1.51 1.45 1.52 1.40 1.29 1.26 1.18 1.30 1.34 1.29 1.35 1.35 1.35 1.69 1.88 1.84 1.67 1.98 2.30 2.55 2.87 3.00 2.72 2.44 2.23 2.23 2.08 1.93 2.09 1.90 1.80 1.79 1.55 1.46
1.60 1.86 1.84 1.93 1.99 1.91 1.87 1.87 2.10 2.03 1.75 1.58 1.68 1.54 1.38 1.26 1.42 1.47 1.42 1.52 1.60 1.71 1.91 1.96 1.78 1.58 1.47 1.66 1.90 2.34 2.92 2.93 2.78 2.48 2.37 2.20 1.97 1.92 1.71 1.68 1.69 1.58 1.43
1.51 1.66 1.95 2.09 2.07 2.18 2.29 2.27 2.65 2.77 2.28 1.86 1.95 2.21 1.97 1.76 1.58 1.45 1.48 1.54 1.67 1.88 1.99 1.89 1.70 1.49 1.34 1.36 1.35 1.75 2.31 2.68 2.76 2.63 2.47 2.22 2.01 1.81 1.71 1.73 1.68 1.71 1.55
1.49 1.60 1.76 1.91 1.95 2.09 2.26 2.37 2.71 3.25 3.00 2.36 2.18 2.59 2.36 2.14 2.03 1.72 1.54 1.53 1.58 1.85 2.13 2.08 1.83 1.61 1.42 1.43 1.35 1.51 1.78 2.04 2.57 2.80 2.69 2.42 2.23 1.93 1.82 1.90 1.71 1.84 1.85
1.37 1.47 1.60 1.73 1.85 1.90 2.07 2.17 2.31 2.87 3.28 2.96 2.67 2.37 2.04 1.99 2.18 2.16 1.81 1.61 1.60 1.73 1.95 1.96 1.83 1.76 1.61 1.47 1.35 1.30 1.53 1.75 2.27 2.71 2.94 2.80 2.55 2.25 2.21 2.35 2.04 1.89 1.88
1.47 1.46 1.60 1.68 1.70 1.78 1.91 2.24 2.51 2.81 3.05 3.06 3.05 2.84 2.54 2.26 1.93 2.19 2.24 1.90 1.77 1.72 1.79 1.83 1.75 1.75 1.74 1.64 1.68 1.46 1.38 1.53 1.79 2.26 2.83 3.15 2.92 2.65 2.69 2.75 2.34 2.14 2.06
1.61 1.62 1.66 1.68 1.66 1.71 1.84 2.07 2.37 2.61 2.93 3.16 3.11 2.92 2.78 2.65 2.41 2.33 2.20 2.04 2.04 1.88 1.76 1.74 1.63 1.62 1.74 1.86 1.81 1.80 1.48 1.32 1.39 1.67 2.07 2.55 2.80 2.83 2.97 2.95 2.66 2.63 2.46
1.53 1.56 1.62 1.74 1.82 1.86 1.99 2.17 2.34 2.27 2.47 2.89 2.92 2.78 2.69 2.51 2.45 2.52 2.46 2.15 2.01 1.73 1.61 1.59 1.51 1.60 1.59 1.63 1.86 2.01 1.58 1.30 1.16 1.40 1.58 1.75 1.99 2.38 2.81 3.01 3.01 3.03 2.90
1.47 1.41 1.44 1.54 1.66 1.85 1.92 1.98 2.03 1.99 2.09 2.35 2.47 2.65 2.74 2.51 2.41 2.33 2.31 2.35 2.12 1.82 1.65 1.52 1.40 1.44 1.45 1.50 1.74 1.87 1.53 1.34 1.03 1.03 1.15 1.35 1.49 1.67 2.02 2.43 2.81 3.00 3.10
1.20 1.12 1.12 1.19 1.27 1.35 1.45 1.61 1.71 1.82 1.86 1.99 2.15 2.28 2.44 2.56 2.49 2.32 2.28 2.27 2.23 2.03 1.81 1.68 1.50 1.32 1.40 1.52 1.77 1.55 1.46 1.43 1.18 1.03 0.97 1.05 1.21 1.28 1.41 1.58 1.83 2.19 2.51
1.13 1.05 1.00 0.98 0.98 0.94 0.98 1.17 1.38 1.51 1.60 1.75 1.94 2.08 2.13 2.19 2.38 2.36 2.21 2.20 2.12 2.01 1.88 1.67 1.56 1.41 1.56 1.50 1.68 1.49 1.51 1.57 1.27 1.13 1.02 0.97 0.99 0.95 0.92 0.99 1.08 1.25 1.62
1.13 1.10 1.00 0.95 1.05 1.04 0.99 1.05 1.12 1.19 1.27 1.41 1.55 1.67 1.82 2.07 2.38 2.42 2.37 2.25 2.16 2.04 1.82 1.65 1.46 1.37 1.66 1.76 1.69 1.56 1.55 1.51 1.28 1.19 1.06 0.95 0.90 0.85 0.80 0.73 0.76 0.86 1.03
0.78 0.87 0.96 0.90 0.89 0.93 0.95 1.01 1.03 1.07 1.12 1.23 1.34 1.46 1.62 1.91 2.25 2.46 2.56 2.45 2.29 2.16 2.03 1.90 1.58 1.33 1.44 1.77 1.89 1.83 1.64 1.49 1.33 1.26 1.09 0.95 0.88 0.81 0.75 0.73 0.73 0.74 0.74
0.62 0.65 0.74 0.74 0.83 0.91 0.95 0.99 0.99 1.03 1.06 1.15 1.30 1.36 1.41 1.59 1.79 1.99 2.18 2.33 2.30 2.27 2.26 2.03 1.74 1.48 1.41 1.54 1.79 1.79 1.72 1.70 1.46 1.39 1.36 1.21 1.06 0.96 0.85 0.77 0.77 0.74 0.69
0.68 0.73 0.83 0.86 0.81 0.80 0.84 0.95 1.00 0.98 0.97 0.99 1.07 1.17 1.25 1.30 1.46 1.60 1.71 1.93 2.15 2.38 2.44 2.28 2.03 1.71 1.58 1.46 1.56 1.72 1.79 1.74 1.65 1.46 1.42 1.30 1.28 1.21 1.09 0.94 0.81 0.74 0.74
0.75 0.76 0.85 0.94 0.99 0.95 0.91 0.98 0.96 0.96 0.97 0.94 0.98 0.98 1.05 1.07 1.14 1.32 1.36 1.59 1.93 2.20 2.30 2.36 2.23 1.92 1.65 1.47 1.26 1.37 1.64 1.86 1.86 1.78 1.76 1.51 1.38 1.23 1.15 1.12 1.04 0.90 0.80
0.64 0.61 0.64 0.70 0.78 0.85 1.09 1.04 0.86 0.80 0.86 0.91 0.95 0.95 0.97 0.92 0.89 0.96 1.08 1.21 1.52 1.73 1.88 1.97 1.98 1.82 1.61 1.48 1.42 1.38 1.46 1.61 1.67 1.55 1.60 1.67 1.59 1.43 1.33 1.21 1.22 1.25 1.15
0.52 0.50 0.49 0.49 0.54 0.72 0.83 0.66 0.64 0.66 0.79 0.90 0.97 1.01 0.98 0.91 0.94 0.95 0.97 0.97 1.04 1.22 1.44 1.66 1.69 1.58 1.64 1.56 1.49 1.38 1.38 1.39 1.38 1.48 1.57 1.64 1.62 1.50 1.42 1.41 1.43 1.33 1.26
0.45 0.44 0.50 0.57 0.58 0.61 0.70 0.57 0.53 0.61 0.81 0.93 0.93 0.89 0.97 0.99 1.01 1.06 1.00 1.05 0.99 0.97 1.07 1.12 1.26 1.47 1.63 1.80 1.78 1.66 1.65 1.58 1.49 1.59 1.62 1.58 1.48 1.39 1.30 1.28 1.34 1.21 1.12
0.53 0.52 0.62 0.69 0.64 0.59 0.64 0.62 0.63 0.75 0.88 0.96 0.92 0.93 1.02 1.06 1.19 1.23 1.13 1.17 1.13 1.09 1.07 1.18 1.28 1.39 1.49 1.61 1.76 1.80 1.75 1.71 1.56 1.48 1.50 1.44 1.33 1.35 1.33 1.21 1.14 1.14 1.04
0.48 0.54 0.57 0.53 0.53 0.62 0.71 0.67 0.74 0.88 1.01 1.11 1.07 1.07 1.27 1.23 1.22 1.16 1.11 1.25 1.21 1.07 1.00 1.04 1.10 1.19 1.23 1.34 1.49 1.54 1.67 1.74 1.64 1.48 1.28 1.25 1.25 1.29 1.34 1.22 1.09 1.02 0.99

GEFSMA_prec_meanprecacc_276.txt.gz
Total_Precipitation_Accumulation
1.11 1.07 0.98 0.98 0.90 1.01 1.17 1.27 1.24 1.16 1.17 1.15 1.06 1.18 1.27 1.36 1.42 1.49 1.68 1.94 2.26 2.75 3.09 3.02 2.68 2.35 2.22 2.18 2.20 2.19 2.22 2.37 2.36 2.38 2.41 2.34 2.28 2.18 2.17 2.17 2.10 2.04 2.09
1.07 1.07 1.05 1.07 1.03 1.07 1.21 1.23 1.15 1.20 1.30 1.23 1.09 1.14 1.24 1.31 1.38 1.40 1.48 1.70 1.97 2.25 2.85 3.20 3.06 2.81 2.76 2.55 2.59 2.54 2.43 2.26 2.20 2.30 2.30 2.28 2.30 2.16 2.09 2.02 1.98 1.91 1.89
0.93 0.99 1.01 1.02 1.07 1.18 1.25 1.32 1.16 1.20 1.20 1.15 1.16 1.16 1.15 1.19 1.21 1.23 1.23 1.33 1.50 1.80 2.33 2.83 3.12 3.17 3.23 3.11 2.95 2.74 2.47 2.23 2.17 2.21 2.21 2.12 2.19 2.12 2.01 2.04 1.92 1.93 1.88
0.87 1.01 1.04 1.02 1.05 1.21 1.34 1.43 1.35 1.34 1.31 1.28 1.28 1.26 1.17 1.21 1.13 1.13 1.17 1.19 1.38 1.40 1.78 2.23 2.58 2.82 3.16 3.17 3.01 2.84 2.53 2.15 2.03 2.11 2.16 1.98 2.01 2.03 1.93 2.03 1.92 1.83 1.78
0.97 1.16 1.26 1.26 1.25 1.28 1.32 1.32 1.42 1.47 1.45 1.44 1.35 1.33 1.29 1.21 1.24 1.14 1.16 1.26 1.27 1.37 1.62 1.85 2.03 2.16 2.57 2.78 2.91 3.08 2.87 2.38 2.09 2.12 2.16 1.95 1.91 2.05 1.92 1.90 1.85 1.68 1.61
1.33 1.49 1.48 1.57 1.62 1.53 1.53 1.49 1.55 1.53 1.46 1.53 1.42 1.29 1.27 1.19 1.31 1.36 1.30 1.36 1.37 1.38 1.74 1.94 1.87 1.72 2.05 2.37 2.64 2.98 3.10 2.78 2.49 2.28 2.29 2.14 1.98 2.13 1.94 1.86 1.84 1.59 1.52
1.63 1.88 1.85 1.93 2.00 1.91 1.87 1.88 2.10 2.05 1.77 1.59 1.69 1.55 1.39 1.26 1.43 1.49 1.43 1.54 1.62 1.75 1.97 1.99 1.80 1.60 1.50 1.70 1.97 2.43 3.04 3.03 2.84 2.54 2.43 2.26 2.01 1.96 1.76 1.73 1.74 1.63 1.49
1.53 1.67 1.96 2.10 2.08 2.18 2.29 2.28 2.66 2.78 2.29 1.86 1.95 2.21 1.97 1.77 1.59 1.46 1.50 1.57 1.70 1.92 2.04 1.93 1.74 1.51 1.35 1.37 1.38 1.80 2.38 2.77 2.84 2.70 2.53 2.27 2.06 1.87 1.77 1.79 1.75 1.77 1.61
1.50 1.61 1.77 1.92 1.97 2.10 2.27 2.38 2.72 3.26 3.01 2.36 2.18 2.60 2.37 2.15 2.04 1.74 1.57 1.57 1.62 1.89 2.17 2.11 1.86 1.63 1.43 1.44 1.36 1.53 1.82 2.10 2.65 2.87 2.76 2.48 2.28 1.99 1.89 1.99 1.79 1.93 1.92
1.38 1.47 1.61 1.74 1.86 1.91 2.08 2.18 2.33 2.88 3.28 2.96 2.68 2.38 2.05 2.00 2.20 2.19 1.84 1.64 1.63 1.75 1.97 1.97 1.85 1.78 1.63 1.49 1.37 1.33 1.57 1.79 2.32 2.79 3.02 2.88 2.62 2.32 2.29 2.44 2.13 1.98 1.96
1.47 1.47 1.61 1.69 1.71 1.79 1.91 2.25 2.53 2.82 3.06 3.07 3.06 2.85 2.55 2.27 1.95 2.22 2.26 1.92 1.79 1.74 1.80 1.86 1.77 1.76 1.75 1.65 1.69 1.47 1.39 1.57 1.85 2.32 2.91 3.24 3.03 2.75 2.79 2.87 2.46 2.25 2.15
1.62 1.63 1.67 1.69 1.67 1.72 1.84 2.08 2.38 2.62 2.94 3.17 3.13 2.93 2.79 2.67 2.43 2.35 2.22 2.05 2.06 1.91 1.79 1.77 1.64 1.63 1.76 1.90 1.85 1.83 1.51 1.34 1.42 1.71 2.11 2.61 2.89 2.95 3.09 3.12 2.83 2.79 2.60
1.54 1.57 1.64 1.76 1.83 1.87 2.00 2.18 2.34 2.28 2.48 2.90 2.93 2.79 2.71 2.54 2.48 2.55 2.48 2.16 2.03 1.75 1.65 1.63 1.53 1.60 1.60 1.64 1.87 2.03 1.60 1.32 1.17 1.42 1.60 1.78 2.05 2.48 2.94 3.17 3.16 3.17 3.01
1.48 1.42 1.45 1.55 1.67 1.86 1.92 1.99 2.04 2.00 2.10 2.36 2.48 2.66 2.76 2.54 2.43 2.35 2.33 2.38 2.14 1.84 1.68 1.56 1.42 1.45 1.46 1.50 1.75 1.89 1.54 1.35 1.05 1.04 1.16 1.37 1.53 1.76 2.14 2.57 2.93 3.10 3.17
1.21 1.13 1.13 1.21 1.28 1.36 1.46 1.61 1.72 1.83 1.88 2.01 2.16 2.29 2.45 2.57 2.51 2.33 2.30 2.30 2.26 2.06 1.84 1.70 1.52 1.34 1.42 1.53 1.78 1.56 1.47 1.44 1.19 1.04 0.98 1.06 1.25 1.37 1.52 1.69 1.92 2.25 2.56
1.14 1.06 1.01 0.99 0.98 0.94 0.98 1.17 1.39 1.51 1.61 1.77 1.95 2.09 2.14 2.21 2.39 2.38 2.23 2.24 2.16 2.04 1.90 1.69 1.58 1.43 1.58 1.51 1.69 1.50 1.52 1.59 1.28 1.14 1.02 0.98 1.02 1.02 1.00 1.08 1.16 1.31 1.66
1.14 1.11 1.01 0.96 1.05 1.04 0.99 1.05 1.12 1.20 1.28 1.43 1.56 1.70 1.85 2.09 2.39 2.44 2.39 2.28 2.19 2.07 1.85 1.67 1.49 1.39 1.67 1.77 1.70 1.59 1.57 1.53 1.29 1.20 1.07 0.96 0.94 0.91 0.88 0.83 0.86 0.96 1.10
0.79 0.88 0.98 0.91 0.90 0.93 0.95 1.01 1.03 1.08 1.13 1.24 1.35 1.48 1.65 1.93 2.27 2.48 2.57 2.45 2.31 2.18 2.05 1.92 1.61 1.36 1.46 1.78 1.91 1.85 1.68 1.52 1.36 1.28 1.11 0.99 0.94 0.86 0.82 0.80 0.78 0.79 0.78
0.62 0.66 0.75 0.75 0.84 0.92 0.95 0.99 0.99 1.03 1.07 1.16 1.31 1.37 1.42 1.62 1.81 2.01 2.20 2.34 2.31 2.28 2.27 2.04 1.76 1.50 1.42 1.55 1.80 1.81 1.76 1.76 1.52 1.44 1.40 1.25 1.10 0.99 0.89 0.80 0.79 0.76 0.71
0.69 0.73 0.84 0.87 0.82 0.80 0.85 0.96 1.00 0.98 0.97 1.00 1.08 1.18 1.26 1.31 1.48 1.63 1.73 1.95 2.16 2.39 2.45 2.29 2.04 1.73 1.60 1.48 1.58 1.75 1.82 1.78 1.70 1.52 1.48 1.35 1.33 1.24 1.12 0.96 0.82 0.75 0.75
0.76 0.77 0.86 0.95 1.00 0.95 0.91 0.99 0.96 0.96 0.97 0.95 0.99 0.99 1.06 1.09 1.16 1.34 1.38 1.61 1.95 2.22 2.31 2.37 2.24 1.93 1.68 1.50 1.29 1.41 1.68 1.90 1.89 1.82 1.81 1.56 1.41 1.26 1.17 1.13 1.05 0.91 0.81
0.65 0.62 0.65 0.71 0.79 0.85 1.10 1.04 0.86 0.81 0.86 0.92 0.96 0.96 0.98 0.93 0.91 0.98 1.11 1.23 1.53 1.75 1.90 1.98 1.99 1.83 1.62 1.50 1.45 1.42 1.50 1.64 1.69 1.59 1.63 1.70 1.61 1.45 1.35 1.22 1.23 1.26 1.16
0.54 0.51 0.50 0.49 0.55 0.73 0.84 0.68 0.65 0.68 0.80 0.91 0.98 1.02 0.99 0.92 0.96 0.97 0.99 0.99 1.05 1.23 1.46 1.68 1.70 1.59 1.66 1.57 1.51 1.40 1.42 1.43 1.41 1.52 1.60 1.67 1.64 1.52 1.44 1.42 1.45 1.34 1.28
0.47 0.46 0.51 0.58 0.59 0.62 0.71 0.58 0.55 0.62 0.83 0.95 0.94 0.90 0.98 1.00 1.02 1.08 1.01 1.06 1.00 0.98 1.08 1.13 1.27 1.48 1.64 1.81 1.79 1.68 1.68 1.62 1.52 1.63 1.65 1.61 1.51 1.42 1.32 1.29 1.35 1.22 1.13
0.55 0.53 0.63 0.70 0.65 0.60 0.66 0.63 0.65 0.76 0.90 0.98 0.93 0.94 1.03 1.07 1.21 1.24 1.14 1.19 1.14 1.11 1.08 1.19 1.29 1.40 1.49 1.62 1.77 1.81 1.77 1.74 1.59 1.52 1.53 1.47 1.36 1.37 1.35 1.23 1.15 1.15 1.05
0.51 0.56 0.58 0.55 0.55 0.62 0.72 0.68 0.75 0.89 1.03 1.13 1.08 1.08 1.29 1.24 1.23 1.17 1.11 1.26 1.22 1.08 1.01 1.05 1.11 1.20 1.24 1.35 1.49 1.54 1.68 1.75 1.65 1.50 1.30 1.28 1.28 1.33 1.37 1.24 1.11 1.03 1.00

GEFSMA_prec_meanprecacc_282.txt.gz
Total_Precipitation_Accumulation
1.13 1.09 1.00 0.99 0.91 1.01 1.18 1.28 1.24 1.16 1.18 1.16 1.07 1.19 1.27 1.37 1.44 1.51 1.71 1.99 2.34 2.83 3.18 3.09 2.74 2.40 2.26 2.23 2.25 2.24 2.28 2.42 2.42 2.44 2.47 2.39 2.33 2.23 2.22 2.22 2.15 2.09 2.14
1.09 1.08 1.06 1.08 1.05 1.08 1.22 1.24 1.16 1.21 1.31 1.24 1.10 1.14 1.24 1.32 1.39 1.41 1.49 1.71 2.01 2.31 2.93 3.28 3.13 2.88 2.81 2.60 2.65 2.60 2.48 2.31 2.24 2.35 2.34 2.33 2.35 2.21 2.13 2.05 2.02 1.95 1.93
0.95 1.00 1.03 1.03 1.08 1.19 1.27 1.33 1.17 1.20 1.21 1.16 1.16 1.16 1.15 1.20 1.22 1.24 1.24 1.33 1.51 1.83 2.37 2.89 3.17 3.23 3.28 3.18 3.02 2.79 2.51 2.27 2.21 2.24 2.25 2.16 2.23 2.17 2.07 2.08 1.96 1.97 1.93
0.90 1.04 1.07 1.04 1.05 1.22 1.35 1.43 1.36 1.35 1.32 1.28 1.28 1.26 1.18 1.22 1.14 1.14 1.17 1.20 1.39 1.41 1.80 2.26 2.61 2.87 3.21 3.24 3.08 2.91 2.60 2.22 2.08 2.16 2.19 2.01 2.04 2.08 1.98 2.07 1.96 1.86 1.82
1.01 1.19 1.29 1.28 1.25 1.29 1.33 1.33 1.43 1.48 1.45 1.44 1.35 1.33 1.30 1.22 1.25 1.15 1.16 1.26 1.28 1.37 1.62 1.86 2.05 2.20 2.62 2.86 2.99 3.15 2.96 2.46 2.16 2.18 2.20 1.99 1.94 2.08 1.96 1.94 1.88 1.72 1.64
1.35 1.51 1.50 1.58 1.62 1.54 1.54 1.50 1.55 1.53 1.46 1.53 1.42 1.30 1.28 1.20 1.32 1.37 1.31 1.37 1.38 1.38 1.75 1.96 1.89 1.75 2.09 2.45 2.72 3.08 3.19 2.86 2.57 2.36 2.35 2.18 2.01 2.16 1.97 1.88 1.86 1.63 1.55
1.65 1.89 1.86 1.94 2.00 1.92 1.89 1.89 2.11 2.05 1.77 1.59 1.70 1.55 1.39 1.27 1.43 1.50 1.44 1.54 1.63 1.76 1.99 2.01 1.82 1.62 1.52 1.76 2.03 2.53 3.14 3.11 2.91 2.61 2.49 2.31 2.06 2.00 1.79 1.76 1.77 1.66 1.52
1.54 1.69 1.98 2.11 2.09 2.20 2.31 2.30 2.67 2.79 2.29 1.86 1.97 2.22 1.97 1.77 1.60 1.47 1.52 1.58 1.71 1.95 2.07 1.95 1.75 1.53 1.38 1.41 1.44 1.86 2.46 2.85 2.91 2.76 2.58 2.31 2.10 1.92 1.80 1.82 1.78 1.82 1.65
1.52 1.63 1.79 1.94 1.98 2.11 2.28 2.39 2.73 3.27 3.02 2.36 2.18 2.60 2.37 2.15 2.05 1.74 1.58 1.57 1.64 1.92 2.20 2.13 1.89 1.65 1.45 1.47 1.40 1.58 1.86 2.17 2.72 2.92 2.80 2.52 2.32 2.04 1.94 2.03 1.83 1.98 1.98
1.39 1.50 1.63 1.75 1.88 1.92 2.09 2.19 2.34 2.90 3.30 2.97 2.69 2.38 2.06 2.01 2.20 2.20 1.85 1.65 1.65 1.78 2.00 2.00 1.87 1.81 1.65 1.51 1.39 1.36 1.60 1.83 2.37 2.85 3.07 2.93 2.66 2.37 2.34 2.50 2.19 2.03 2.01
1.48 1.48 1.63 1.71 1.72 1.79 1.92 2.25 2.54 2.83 3.08 3.09 3.07 2.86 2.56 2.28 1.96 2.22 2.27 1.93 1.81 1.78 1.84 1.88 1.79 1.78 1.76 1.66 1.70 1.48 1.41 1.59 1.88 2.37 2.98 3.30 3.09 2.81 2.85 2.93 2.52 2.31 2.22
1.62 1.63 1.68 1.71 1.68 1.73 1.85 2.08 2.39 2.62 2.96 3.19 3.14 2.94 2.81 2.68 2.44 2.36 2.23 2.06 2.07 1.94 1.82 1.80 1.66 1.64 1.77 1.91 1.85 1.84 1.52 1.36 1.44 1.73 2.14 2.65 2.95 3.03 3.18 3.20 2.92 2.89 2.71
1.55 1.58 1.65 1.77 1.85 1.89 2.01 2.19 2.34 2.28 2.49 2.91 2.95 2.81 2.73 2.56 2.49 2.56 2.49 2.17 2.04 1.78 1.68 1.65 1.54 1.61 1.61 1.65 1.88 2.04 1.62 1.33 1.18 1.43 1.61 1.79 2.09 2.53 3.01 3.27 3.28 3.28 3.13
1.48 1.43 1.46 1.57 1.69 1.88 1.94 2.01 2.06 2.01 2.12 2.38 2.49 2.67 2.78 2.56 2.45 2.36 2.35 2.39 2.16 1.88 1.72 1.58 1.44 1.46 1.47 1.50 1.75 1.89 1.55 1.36 1.05 1.05 1.16 1.37 1.54 1.78 2.17 2.65 3.05 3.21 3.29
1.21 1.14 1.14 1.22 1.29 1.38 1.47 1.63 1.73 1.84 1.90 2.03 2.17 2.30 2.47 2.59 2.52 2.35 2.33 2.32 2.29 2.10 1.88 1.73 1.55 1.35 1.43 1.54 1.78 1.56 1.47 1.45 1.20 1.04 0.98 1.06 1.25 1.38 1.55 1.74 2.01 2.37 2.66
1.15 1.06 1.01 1.00 0.99 0.95 0.99 1.18 1.39 1.52 1.62 1.79 1.97 2.11 2.16 2.23 2.41 2.41 2.28 2.28 2.21 2.08 1.94 1.72 1.60 1.45 1.58 1.51 1.69 1.51 1.53 1.60 1.29 1.15 1.02 0.98 1.03 1.03 1.03 1.12 1.22 1.39 1.75
1.16 1.12 1.02 0.97 1.06 1.05 0.99 1.06 1.13 1.20 1.28 1.44 1.58 1.71 1.87 2.12 2.42 2.47 2.43 2.33 2.25 2.12 1.88 1.69 1.51 1.41 1.68 1.78 1.71 1.59 1.58 1.53 1.30 1.21 1.07 0.97 0.95 0.92 0.89 0.85 0.91 1.03 1.18
0.80 0.90 0.99 0.93 0.91 0.94 0.95 1.01 1.04 1.08 1.13 1.25 1.37 1.49 1.67 1.96 2.30 2.51 2.60 2.49 2.36 2.23 2.08 1.94 1.63 1.38 1.47 1.79 1.91 1.85 1.68 1.53 1.37 1.29 1.12 1.01 0.95 0.88 0.83 0.82 0.82 0.85 0.86
0.64 0.68 0.77 0.76 0.84 0.93 0.96 0.99 1.00 1.04 1.08 1.17 1.32 1.38 1.44 1.64 1.83 2.03 2.23 2.37 2.34 2.32 2.29 2.06 1.78 1.51 1.43 1.56 1.80 1.81 1.76 1.77 1.53 1.45 1.42 1.27 1.12 1.00 0.90 0.82 0.82 0.81 0.78
0.72 0.75 0.85 0.88 0.82 0.81 0.86 0.97 1.01 0.98 0.98 1.01 1.09 1.18 1.27 1.33 1.50 1.64 1.75 1.97 2.18 2.41 2.46 2.31 2.05 1.74 1.61 1.50 1.59 1.76 1.83 1.79 1.71 1.54 1.50 1.37 1.34 1.26 1.14 0.98 0.85 0.79 0.80
0.80 0.80 0.88 0.97 1.02 0.97 0.93 1.00 0.97 0.97 0.98 0.96 1.00 1.00 1.07 1.11 1.18 1.35 1.39 1.63 1.95 2.23 2.32 2.38 2.25 1.94 1.68 1.51 1.30 1.42 1.68 1.90 1.90 1.83 1.83 1.59 1.44 1.29 1.20 1.16 1.09 0.95 0.85
0.70 0.67 0.69 0.74 0.82 0.88 1.13 1.07 0.88 0.83 0.88 0.93 0.97 0.97 1.00 0.96 0.93 1.00 1.12 1.24 1.54 1.76 1.91 1.99 2.00 1.84 1.64 1.51 1.47 1.43 1.51 1.65 1.71 1.61 1.65 1.73 1.66 1.50 1.39 1.26 1.28 1.30 1.20
0.57 0.54 0.53 0.52 0.58 0.75 0.88 0.71 0.68 0.70 0.82 0.93 1.00 1.04 1.01 0.94 0.97 0.99 1.00 1.00 1.06 1.24 1.47 1.69 1.71 1.61 1.67 1.59 1.53 1.42 1.43 1.44 1.44 1.55 1.63 1.71 1.68 1.57 1.49 1.47 1.49 1.37 1.30
0.50 0.48 0.53 0.60 0.61 0.65 0.73 0.60 0.57 0.65 0.84 0.96 0.96 0.93 1.00 1.02 1.05 1.11 1.05 1.08 1.02 1.00 1.09 1.14 1.28 1.50 1.65 1.82 1.81 1.71 1.71 1.64 1.55 1.66 1.68 1.64 1.55 1.46 1.37 1.34 1.40 1.26 1.16
0.57 0.55 0.65 0.72 0.67 0.62 0.68 0.65 0.67 0.78 0.91 1.00 0.95 0.96 1.04 1.08 1.23 1.27 1.18 1.22 1.17 1.14 1.11 1.21 1.30 1.42 1.52 1.64 1.80 1.83 1.79 1.76 1.62 1.55 1.56 1.50 1.40 1.41 1.39 1.27 1.20 1.19 1.08
0.52 0.58 0.60 0.56 0.56 0.64 0.74 0.69 0.77 0.91 1.04 1.14 1.10 1.10 1.30 1.25 1.25 1.18 1.13 1.28 1.25 1.12 1.04 1.08 1.13 1.21 1.26 1.37 1.51 1.56 1.70 1.78 1.68 1.53 1.34 1.32 1.31 1.35 1.39 1.27 1.14 1.07 1.03

GEFSMA_prec_meanprecacc_288.txt.gz
Total_Precipitation_Accumulation
1.15 1.11 1.01 1.01 0.93 1.03 1.18 1.28 1.25 1.17 1.19 1.17 1.08 1.20 1.29 1.39 1.46 1.56 1.81 2.10 2.42 2.90 3.24 3.13 2.77 2.43 2.30 2.26 2.27 2.29 2.33 2.47 2.48 2.50 2.52 2.43 2.38 2.28 2.27 2.27 2.20 2.15 2.18
1.12 1.11 1.08 1.10 1.07 1.10 1.23 1.25 1.16 1.22 1.31 1.25 1.11 1.15 1.26 1.33 1.41 1.43 1.55 1.81 2.09 2.38 3.02 3.35 3.18 2.93 2.86 2.65 2.69 2.65 2.54 2.37 2.30 2.40 2.39 2.37 2.40 2.26 2.19 2.11 2.07 1.99 1.97
0.98 1.03 1.06 1.05 1.10 1.21 1.28 1.34 1.17 1.21 1.22 1.17 1.18 1.18 1.16 1.21 1.24 1.28 1.29 1.40 1.58 1.87 2.45 3.00 3.26 3.29 3.35 3.23 3.08 2.85 2.56 2.33 2.26 2.30 2.31 2.22 2.27 2.21 2.11 2.12 2.01 2.01 1.97
0.93 1.07 1.09 1.05 1.07 1.23 1.36 1.44 1.36 1.36 1.34 1.30 1.29 1.27 1.19 1.24 1.16 1.17 1.21 1.24 1.45 1.45 1.84 2.32 2.67 2.92 3.27 3.30 3.15 2.98 2.66 2.26 2.12 2.21 2.26 2.07 2.08 2.11 2.01 2.11 1.99 1.91 1.86
1.04 1.22 1.31 1.29 1.26 1.30 1.34 1.34 1.44 1.49 1.47 1.46 1.36 1.34 1.31 1.24 1.27 1.16 1.19 1.30 1.31 1.40 1.64 1.87 2.07 2.22 2.65 2.90 3.06 3.22 3.01 2.51 2.23 2.25 2.27 2.04 1.98 2.12 2.00 1.98 1.92 1.76 1.68
1.37 1.53 1.51 1.59 1.63 1.55 1.56 1.52 1.57 1.54 1.47 1.54 1.42 1.30 1.28 1.21 1.33 1.39 1.33 1.39 1.39 1.39 1.76 1.97 1.92 1.77 2.12 2.49 2.80 3.16 3.26 2.94 2.67 2.46 2.42 2.25 2.07 2.21 2.01 1.93 1.91 1.66 1.57
1.67 1.91 1.87 1.95 2.02 1.94 1.91 1.91 2.14 2.07 1.78 1.60 1.71 1.56 1.40 1.27 1.44 1.51 1.45 1.55 1.64 1.77 2.00 2.02 1.83 1.64 1.55 1.81 2.11 2.61 3.22 3.19 2.99 2.69 2.56 2.39 2.15 2.06 1.84 1.80 1.82 1.70 1.54
1.56 1.71 2.00 2.13 2.11 2.21 2.33 2.32 2.69 2.81 2.31 1.87 1.98 2.24 1.99 1.78 1.60 1.48 1.53 1.59 1.72 1.95 2.07 1.96 1.76 1.55 1.41 1.47 1.49 1.93 2.58 2.95 2.99 2.83 2.64 2.39 2.20 2.01 1.86 1.86 1.82 1.86 1.68
1.52 1.65 1.81 1.96 1.99 2.13 2.31 2.43 2.75 3.30 3.04 2.38 2.20 2.62 2.40 2.18 2.06 1.75 1.58 1.58 1.65 1.92 2.21 2.14 1.90 1.67 1.48 1.52 1.46 1.64 1.96 2.26 2.78 2.99 2.88 2.59 2.41 2.13 2.01 2.10 1.89 2.03 2.02
1.40 1.52 1.65 1.77 1.89 1.94 2.11 2.21 2.35 2.93 3.33 2.99 2.70 2.39 2.07 2.03 2.22 2.22 1.86 1.66 1.65 1.79 2.00 2.00 1.88 1.83 1.68 1.55 1.44 1.40 1.64 1.88 2.44 2.91 3.15 3.01 2.75 2.45 2.42 2.58 2.25 2.08 2.05
1.49 1.49 1.64 1.72 1.73 1.81 1.94 2.27 2.55 2.85 3.09 3.11 3.09 2.87 2.57 2.30 1.97 2.24 2.30 1.95 1.82 1.79 1.84 1.90 1.80 1.79 1.78 1.68 1.73 1.51 1.44 1.64 1.94 2.45 3.06 3.38 3.17 2.89 2.93 3.00 2.58 2.35 2.26
1.63 1.64 1.69 1.72 1.70 1.74 1.86 2.10 2.41 2.64 2.97 3.21 3.16 2.96 2.82 2.69 2.44 2.37 2.24 2.08 2.10 1.96 1.84 1.81 1.67 1.66 1.79 1.93 1.87 1.85 1.53 1.39 1.48 1.78 2.21 2.72 3.02 3.10 3.26 3.27 2.99 2.95 2.78
1.56 1.59 1.65 1.78 1.86 1.91 2.02 2.20 2.37 2.31 2.51 2.93 2.97 2.83 2.76 2.58 2.51 2.57 2.50 2.19 2.05 1.80 1.70 1.67 1.55 1.62 1.61 1.66 1.89 2.05 1.62 1.33 1.19 1.46 1.65 1.83 2.13 2.57 3.07 3.33 3.35 3.35 3.20
1.49 1.43 1.47 1.57 1.70 1.89 1.95 2.02 2.08 2.04 2.14 2.40 2.51 2.69 2.81 2.60 2.49 2.39 2.37 2.41 2.18 1.90 1.74 1.60 1.45 1.47 1.47 1.51 1.75 1.89 1.55 1.36 1.05 1.06 1.20 1.41 1.58 1.82 2.21 2.69 3.11 3.28 3.35
1.22 1.14 1.14 1.22 1.30 1.39 1.49 1.64 1.75 1.86 1.92 2.05 2.18 2.32 2.49 2.61 2.56 2.39 2.37 2.34 2.31 2.11 1.90 1.75 1.57 1.37 1.44 1.55 1.78 1.57 1.48 1.45 1.20 1.05 1.00 1.11 1.30 1.41 1.58 1.77 2.06 2.43 2.72
1.17 1.08 1.03 1.00 1.00 0.96 1.00 1.20 1.41 1.53 1.64 1.81 1.99 2.12 2.18 2.25 2.44 2.44 2.31 2.30 2.23 2.11 1.95 1.73 1.62 1.46 1.58 1.52 1.70 1.51 1.53 1.60 1.30 1.15 1.03 1.01 1.08 1.07 1.06 1.14 1.26 1.45 1.84
1.18 1.14 1.04 0.98 1.07 1.06 1.00 1.07 1.14 1.21 1.29 1.45 1.60 1.73 1.88 2.14 2.44 2.49 2.46 2.35 2.27 2.16 1.92 1.72 1.53 1.42 1.68 1.78 1.71 1.60 1.58 1.54 1.31 1.22 1.08 0.98 0.97 0.97 0.93 0.88 0.94 1.07 1.28
0.82 0.92 1.01 0.95 0.92 0.95 0.96 1.02 1.04 1.09 1.14 1.26 1.38 1.50 1.68 1.97 2.32 2.54 2.63 2.52 2.38 2.27 2.12 1.98 1.65 1.40 1.48 1.80 1.92 1.86 1.68 1.53 1.37 1.30 1.13 1.01 0.96 0.90 0.87 0.86 0.85 0.88 0.94
0.66 0.69 0.78 0.78 0.86 0.95 0.97 1.00 1.00 1.04 1.09 1.18 1.33 1.39 1.45 1.65 1.85 2.05 2.24 2.38 2.37 2.35 2.33 2.09 1.80 1.53 1.46 1.58 1.81 1.82 1.77 1.77 1.53 1.45 1.42 1.27 1.12 1.00 0.92 0.85 0.84 0.85 0.85
0.74 0.77 0.87 0.89 0.84 0.83 0.88 0.98 1.02 0.99 0.99 1.02 1.09 1.19 1.28 1.34 1.51 1.66 1.76 1.98 2.20 2.44 2.50 2.34 2.08 1.76 1.64 1.52 1.60 1.77 1.84 1.79 1.72 1.54 1.50 1.37 1.35 1.27 1.14 0.99 0.87 0.82 0.85
0.82 0.82 0.90 0.99 1.03 0.99 0.95 1.01 0.99 0.99 1.00 0.98 1.01 1.01 1.08 1.12 1.20 1.37 1.41 1.64 1.97 2.25 2.34 2.41 2.27 1.96 1.70 1.53 1.32 1.44 1.70 1.92 1.91 1.84 1.83 1.59 1.45 1.30 1.21 1.17 1.10 0.97 0.87
0.71 0.69 0.71 0.76 0.84 0.91 1.17 1.09 0.90 0.84 0.91 0.96 1.00 0.99 1.02 0.98 0.95 1.02 1.15 1.27 1.55 1.78 1.93 2.01 2.02 1.85 1.64 1.52 1.48 1.45 1.53 1.66 1.72 1.62 1.66 1.74 1.66 1.51 1.40 1.27 1.29 1.32 1.22
0.60 0.57 0.56 0.54 0.59 0.78 0.90 0.73 0.70 0.71 0.84 0.96 1.04 1.08 1.04 0.97 1.00 1.01 1.03 1.03 1.08 1.26 1.49 1.70 1.72 1.62 1.69 1.60 1.54 1.44 1.45 1.45 1.46 1.57 1.64 1.72 1.70 1.59 1.51 1.49 1.51 1.39 1.32
0.51 0.49 0.54 0.61 0.62 0.67 0.75 0.62 0.59 0.66 0.85 0.98 0.98 0.95 1.04 1.06 1.09 1.14 1.07 1.11 1.03 1.01 1.11 1.15 1.29 1.51 1.67 1.84 1.82 1.72 1.72 1.65 1.56 1.67 1.69 1.66 1.56 1.49 1.40 1.37 1.43 1.29 1.18
0.58 0.56 0.66 0.73 0.67 0.63 0.70 0.66 0.68 0.79 0.92 1.00 0.96 0.97 1.06 1.11 1.25 1.29 1.19 1.24 1.19 1.16 1.14 1.24 1.33 1.45 1.55 1.66 1.81 1.84 1.80 1.77 1.64 1.58 1.57 1.52 1.42 1.44 1.42 1.30 1.22 1.22 1.11
0.53 0.59 0.60 0.56 0.56 0.64 0.76 0.71 0.78 0.92 1.04 1.15 1.11 1.11 1.33 1.28 1.27 1.20 1.14 1.29 1.26 1.13 1.06 1.10 1.16 1.24 1.29 1.40 1.54 1.58 1.72 1.80 1.71 1.57 1.37 1.33 1.33 1.37 1.42 1.30 1.17 1.09 1.05

GEFSMA_prec_meanprecacc_294.txt.gz
Total_Precipitation_Accumulation
1.18 1.14 1.03 1.03 0.95 1.05 1.21 1.31 1.27 1.19 1.21 1.18 1.10 1.22 1.31 1.43 1.52 1.62 1.86 2.15 2.47 2.95 3.28 3.16 2.80 2.46 2.33 2.28 2.30 2.32 2.37 2.52 2.54 2.57 2.57 2.47 2.42 2.32 2.31 2.31 2.23 2.19 2.23
1.14 1.14 1.12 1.15 1.10 1.12 1.24 1.27 1.19 1.23 1.33 1.27 1.13 1.16 1.27 1.36 1.46 1.48 1.60 1.85 2.13 2.41 3.04 3.38 3.21 2.96 2.90 2.68 2.72 2.68 2.59 2.40 2.35 2.46 2.43 2.41 2.44 2.29 2.23 2.15 2.11 2.02 2.01
0.99 1.06 1.10 1.09 1.12 1.23 1.30 1.36 1.20 1.23 1.24 1.19 1.19 1.19 1.18 1.22 1.26 1.32 1.33 1.46 1.63 1.91 2.49 3.04 3.29 3.32 3.38 3.26 3.10 2.88 2.59 2.35 2.31 2.36 2.36 2.26 2.31 2.24 2.13 2.14 2.04 2.06 2.01
0.94 1.09 1.13 1.08 1.08 1.24 1.38 1.46 1.39 1.39 1.36 1.32 1.31 1.29 1.20 1.25 1.17 1.20 1.24 1.29 1.51 1.50 1.89 2.38 2.72 2.95 3.29 3.32 3.17 3.00 2.69 2.29 2.16 2.27 2.32 2.12 2.12 2.14 2.04 2.13 2.02 1.94 1.90
1.05 1.24 1.34 1.32 1.28 1.32 1.35 1.35 1.47 1.52 1.50 1.49 1.39 1.35 1.33 1.26 1.30 1.18 1.21 1.32 1.34 1.45 1.68 1.90 2.11 2.28 2.68 2.94 3.12 3.27 3.05 2.56 2.28 2.31 2.35 2.11 2.02 2.15 2.03 2.01 1.95 1.78 1.70
1.39 1.54 1.52 1.60 1.65 1.57 1.57 1.54 1.59 1.58 1.50 1.58 1.45 1.32 1.30 1.23 1.36 1.42 1.35 1.41 1.42 1.42 1.79 1.99 1.94 1.81 2.16 2.52 2.84 3.21 3.32 3.00 2.73 2.53 2.51 2.33 2.12 2.24 2.04 1.97 1.94 1.69 1.60
1.69 1.93 1.89 1.97 2.04 1.96 1.92 1.93 2.16 2.09 1.80 1.62 1.73 1.58 1.41 1.29 1.46 1.53 1.48 1.58 1.67 1.80 2.02 2.03 1.85 1.68 1.60 1.85 2.16 2.68 3.30 3.27 3.08 2.78 2.64 2.45 2.18 2.10 1.87 1.83 1.85 1.73 1.57
1.56 1.73 2.03 2.17 2.14 2.26 2.36 2.35 2.71 2.84 2.33 1.89 2.01 2.28 2.01 1.80 1.61 1.49 1.55 1.61 1.75 1.99 2.10 1.97 1.79 1.58 1.46 1.51 1.53 1.99 2.66 3.04 3.10 2.93 2.71 2.44 2.23 2.04 1.90 1.90 1.86 1.89 1.71
1.54 1.66 1.83 1.98 2.02 2.16 2.35 2.46 2.78 3.33 3.08 2.40 2.22 2.66 2.45 2.22 2.09 1.77 1.61 1.61 1.68 1.95 2.23 2.17 1.93 1.70 1.51 1.56 1.50 1.70 2.04 2.35 2.88 3.07 2.93 2.64 2.44 2.16 2.05 2.13 1.91 2.06 2.04
1.42 1.54 1.67 1.78 1.90 1.97 2.14 2.23 2.37 2.96 3.37 3.03 2.72 2.41 2.10 2.06 2.26 2.26 1.90 1.70 1.68 1.81 2.02 2.02 1.91 1.86 1.71 1.58 1.48 1.45 1.69 1.94 2.50 2.96 3.20 3.07 2.79 2.49 2.45 2.61 2.29 2.11 2.08
1.50 1.51 1.67 1.73 1.74 1.83 1.97 2.30 2.57 2.88 3.12 3.14 3.12 2.89 2.59 2.32 1.99 2.28 2.34 2.00 1.85 1.81 1.86 1.91 1.82 1.82 1.81 1.72 1.77 1.55 1.47 1.67 1.99 2.51 3.12 3.44 3.22 2.94 2.98 3.05 2.63 2.41 2.31
1.64 1.66 1.72 1.74 1.71 1.75 1.87 2.12 2.44 2.68 3.00 3.24 3.19 2.98 2.85 2.72 2.47 2.40 2.28 2.12 2.14 1.99 1.86 1.82 1.68 1.67 1.81 1.96 1.90 1.88 1.56 1.43 1.53 1.84 2.28 2.79 3.07 3.15 3.31 3.32 3.04 3.02 2.85
1.56 1.60 1.67 1.80 1.87 1.91 2.03 2.21 2.39 2.33 2.53 2.97 3.00 2.86 2.78 2.61 2.54 2.60 2.54 2.22 2.09 1.84 1.74 1.70 1.58 1.64 1.63 1.68 1.91 2.06 1.64 1.36 1.22 1.48 1.67 1.87 2.16 2.60 3.10 3.38 3.40 3.42 3.28
1.50 1.45 1.48 1.59 1.71 1.90 1.96 2.03 2.09 2.06 2.16 2.42 2.54 2.73 2.85 2.64 2.53 2.42 2.40 2.45 2.21 1.93 1.78 1.64 1.48 1.49 1.49 1.53 1.77 1.90 1.57 1.37 1.06 1.07 1.21 1.43 1.60 1.84 2.23 2.72 3.16 3.34 3.41
1.25 1.17 1.16 1.24 1.32 1.40 1.50 1.65 1.76 1.87 1.93 2.07 2.21 2.35 2.52 2.66 2.60 2.41 2.39 2.38 2.36 2.16 1.94 1.78 1.59 1.39 1.46 1.56 1.79 1.58 1.49 1.45 1.20 1.05 1.00 1.12 1.32 1.43 1.59 1.79 2.10 2.47 2.77
1.21 1.12 1.06 1.03 1.02 0.97 1.02 1.21 1.42 1.54 1.65 1.82 2.01 2.15 2.20 2.27 2.47 2.47 2.34 2.34 2.28 2.15 1.99 1.76 1.64 1.47 1.59 1.52 1.70 1.52 1.54 1.61 1.30 1.15 1.03 1.02 1.12 1.10 1.07 1.17 1.28 1.47 1.87
1.21 1.18 1.10 1.04 1.11 1.08 1.02 1.09 1.15 1.21 1.30 1.47 1.61 1.74 1.91 2.16 2.46 2.51 2.48 2.38 2.32 2.20 1.96 1.75 1.55 1.43 1.70 1.79 1.72 1.61 1.58 1.54 1.31 1.22 1.08 0.98 1.03 1.02 0.94 0.91 0.95 1.08 1.30
0.84 0.94 1.05 1.00 0.98 0.99 0.99 1.05 1.06 1.10 1.17 1.29 1.40 1.53 1.72 2.00 2.34 2.55 2.65 2.54 2.41 2.30 2.16 2.00 1.68 1.41 1.50 1.81 1.93 1.87 1.68 1.53 1.38 1.31 1.14 1.02 0.99 0.99 0.91 0.88 0.86 0.89 0.95
0.68 0.71 0.80 0.79 0.88 0.97 0.99 1.02 1.03 1.06 1.11 1.21 1.36 1.43 1.48 1.68 1.88 2.08 2.27 2.41 2.38 2.36 2.34 2.11 1.82 1.55 1.47 1.61 1.84 1.84 1.77 1.77 1.53 1.46 1.43 1.28 1.13 1.07 1.01 0.89 0.86 0.85 0.86
0.77 0.79 0.88 0.91 0.86 0.85 0.90 0.99 1.04 1.02 1.01 1.04 1.12 1.22 1.32 1.38 1.55 1.68 1.79 2.01 2.22 2.46 2.52 2.37 2.10 1.78 1.66 1.54 1.62 1.80 1.87 1.82 1.73 1.55 1.51 1.38 1.35 1.29 1.23 1.07 0.92 0.84 0.87
0.85 0.84 0.92 1.01 1.05 1.01 0.98 1.03 1.00 1.00 1.03 1.00 1.04 1.03 1.11 1.16 1.24 1.41 1.44 1.67 1.99 2.27 2.37 2.45 2.31 2.00 1.74 1.58 1.36 1.47 1.73 1.95 1.94 1.86 1.85 1.60 1.46 1.31 1.25 1.23 1.16 1.02 0.91
0.75 0.71 0.73 0.78 0.86 0.93 1.19 1.11 0.91 0.86 0.92 0.98 1.02 1.02 1.05 1.00 0.99 1.07 1.20 1.31 1.59 1.82 1.96 2.04 2.06 1.89 1.69 1.56 1.52 1.48 1.56 1.70 1.76 1.66 1.69 1.76 1.69 1.53 1.42 1.31 1.34 1.38 1.28
0.62 0.60 0.60 0.57 0.61 0.79 0.92 0.75 0.71 0.72 0.85 0.97 1.05 1.10 1.07 1.00 1.03 1.04 1.07 1.08 1.13 1.32 1.53 1.73 1.76 1.65 1.72 1.63 1.57 1.47 1.49 1.49 1.49 1.60 1.67 1.75 1.72 1.62 1.53 1.52 1.55 1.44 1.38
0.54 0.52 0.57 0.63 0.64 0.69 0.78 0.64 0.60 0.66 0.86 0.99 1.00 0.97 1.06 1.09 1.12 1.17 1.10 1.14 1.07 1.05 1.15 1.18 1.32 1.54 1.70 1.87 1.85 1.75 1.76 1.68 1.60 1.70 1.71 1.69 1.58 1.50 1.41 1.39 1.45 1.32 1.24
0.61 0.58 0.68 0.74 0.69 0.65 0.72 0.67 0.69 0.79 0.92 1.01 0.97 0.99 1.08 1.13 1.29 1.34 1.23 1.28 1.22 1.18 1.17 1.27 1.36 1.48 1.60 1.70 1.84 1.87 1.83 1.80 1.68 1.61 1.59 1.55 1.43 1.46 1.45 1.33 1.25 1.26 1.15
0.56 0.61 0.63 0.58 0.58 0.66 0.78 0.73 0.79 0.92 1.04 1.15 1.12 1.13 1.35 1.31 1.31 1.24 1.18 1.33 1.29 1.15 1.08 1.12 1.18 1.27 1.32 1.43 1.57 1.60 1.73 1.83 1.74 1.59 1.38 1.35 1.34 1.39 1.46 1.34 1.20 1.13 1.09

GEFSMA_prec_meanprecacc_300.txt.gz
Total_Precipitation_Accumulation
1.21 1.15 1.04 1.04 0.97 1.07 1.23 1.35 1.39 1.40 1.42 1.35 1.20 1.31 1.36 1.46 1.54 1.64 1.90 2.21 2.53 3.01 3.33 3.20 2.83 2.50 2.38 2.33 2.34 2.35 2.40 2.55 2.57 2.61 2.61 2.52 2.47 2.36 2.35 2.33 2.27 2.24 2.27
1.17 1.17 1.13 1.17 1.11 1.14 1.27 1.30 1.24 1.32 1.44 1.36 1.19 1.22 1.29 1.38 1.48 1.49 1.61 1.89 2.17 2.45 3.08 3.42 3.27 3.05 2.97 2.73 2.74 2.70 2.61 2.42 2.37 2.49 2.48 2.46 2.49 2.34 2.26 2.18 2.14 2.06 2.05
1.03 1.09 1.13 1.12 1.15 1.26 1.33 1.40 1.22 1.27 1.28 1.23 1.23 1.23 1.20 1.24 1.29 1.33 1.34 1.48 1.65 1.94 2.51 3.07 3.33 3.39 3.45 3.30 3.12 2.89 2.61 2.37 2.33 2.39 2.39 2.30 2.35 2.30 2.17 2.17 2.06 2.09 2.04
0.98 1.13 1.16 1.11 1.11 1.28 1.41 1.49 1.42 1.43 1.41 1.35 1.34 1.31 1.22 1.27 1.20 1.22 1.26 1.30 1.54 1.53 1.91 2.40 2.75 2.99 3.33 3.36 3.20 3.02 2.72 2.32 2.18 2.31 2.37 2.17 2.17 2.19 2.08 2.16 2.05 1.97 1.92
1.08 1.26 1.37 1.35 1.31 1.35 1.38 1.38 1.49 1.55 1.53 1.52 1.42 1.38 1.34 1.28 1.31 1.20 1.23 1.33 1.35 1.46 1.68 1.91 2.12 2.29 2.70 2.97 3.15 3.30 3.09 2.59 2.30 2.35 2.40 2.17 2.08 2.19 2.06 2.04 1.98 1.81 1.73
1.41 1.55 1.55 1.63 1.67 1.59 1.59 1.56 1.61 1.60 1.53 1.61 1.47 1.34 1.32 1.25 1.37 1.44 1.37 1.42 1.44 1.43 1.79 2.00 1.95 1.82 2.18 2.55 2.87 3.25 3.37 3.03 2.77 2.56 2.55 2.37 2.18 2.29 2.08 1.99 1.98 1.72 1.63
1.70 1.94 1.90 1.99 2.05 1.97 1.94 1.93 2.17 2.12 1.82 1.64 1.74 1.59 1.43 1.30 1.47 1.55 1.49 1.59 1.68 1.80 2.02 2.04 1.86 1.69 1.63 1.89 2.19 2.72 3.36 3.33 3.13 2.82 2.68 2.48 2.22 2.14 1.90 1.86 1.88 1.76 1.59
1.57 1.75 2.05 2.19 2.16 2.28 2.38 2.36 2.72 2.85 2.35 1.90 2.02 2.29 2.02 1.82 1.63 1.50 1.55 1.62 1.77 2.00 2.11 1.98 1.80 1.60 1.48 1.55 1.58 2.03 2.72 3.12 3.16 2.97 2.76 2.49 2.27 2.07 1.94 1.93 1.89 1.92 1.74
1.54 1.67 1.84 1.99 2.03 2.17 2.36 2.47 2.79 3.34 3.09 2.41 2.23 2.67 2.45 2.22 2.09 1.78 1.62 1.63 1.70 1.97 2.25 2.18 1.95 1.72 1.54 1.59 1.55 1.76 2.10 2.43 2.97 3.14 3.01 2.72 2.50 2.21 2.10 2.16 1.94 2.08 2.07
1.43 1.55 1.68 1.80 1.92 1.98 2.15 2.23 2.38 2.97 3.37 3.03 2.73 2.42 2.11 2.08 2.27 2.27 1.91 1.71 1.70 1.83 2.05 2.05 1.93 1.87 1.73 1.61 1.52 1.52 1.79 2.04 2.62 3.08 3.29 3.15 2.87 2.55 2.49 2.64 2.32 2.14 2.10
1.50 1.52 1.68 1.74 1.76 1.84 1.98 2.30 2.58 2.89 3.13 3.15 3.13 2.90 2.60 2.34 2.01 2.29 2.35 2.01 1.87 1.83 1.88 1.93 1.83 1.83 1.83 1.76 1.82 1.60 1.56 1.79 2.14 2.65 3.25 3.55 3.30 3.01 3.02 3.08 2.66 2.44 2.34
1.65 1.67 1.72 1.75 1.72 1.76 1.89 2.13 2.45 2.69 3.01 3.25 3.21 3.00 2.86 2.74 2.49 2.43 2.30 2.14 2.15 2.01 1.88 1.84 1.70 1.68 1.82 1.99 1.96 1.95 1.64 1.53 1.64 1.95 2.40 2.90 3.16 3.21 3.36 3.37 3.09 3.07 2.89
1.58 1.60 1.68 1.81 1.88 1.93 2.05 2.22 2.39 2.34 2.54 2.97 3.02 2.88 2.81 2.63 2.56 2.63 2.57 2.25 2.11 1.86 1.75 1.72 1.59 1.65 1.64 1.71 1.95 2.13 1.71 1.44 1.30 1.55 1.74 1.93 2.24 2.67 3.16 3.44 3.46 3.47 3.32
1.52 1.46 1.49 1.60 1.72 1.92 1.97 2.04 2.10 2.06 2.17 2.43 2.55 2.75 2.87 2.66 2.57 2.46 2.43 2.49 2.25 1.96 1.80 1.65 1.49 1.50 1.50 1.55 1.79 1.95 1.63 1.42 1.11 1.11 1.24 1.46 1.63 1.87 2.27 2.77 3.20 3.38 3.46
1.27 1.19 1.18 1.26 1.34 1.42 1.51 1.67 1.78 1.88 1.95 2.08 2.22 2.36 2.53 2.67 2.61 2.44 2.43 2.42 2.40 2.18 1.96 1.79 1.60 1.40 1.47 1.58 1.81 1.60 1.51 1.46 1.21 1.06 1.02 1.14 1.33 1.44 1.61 1.82 2.12 2.50 2.81
1.22 1.14 1.09 1.06 1.05 1.00 1.04 1.23 1.44 1.56 1.67 1.84 2.03 2.16 2.21 2.29 2.48 2.48 2.36 2.38 2.32 2.18 2.01 1.77 1.65 1.49 1.61 1.55 1.73 1.53 1.55 1.61 1.30 1.16 1.04 1.03 1.13 1.11 1.07 1.18 1.29 1.48 1.89
1.23 1.20 1.12 1.07 1.15 1.12 1.06 1.13 1.18 1.24 1.33 1.49 1.63 1.77 1.92 2.18 2.48 2.53 2.51 2.41 2.34 2.24 1.98 1.76 1.56 1.44 1.72 1.82 1.74 1.62 1.59 1.55 1.32 1.23 1.08 0.99 1.03 1.03 0.96 0.92 0.96 1.09 1.31
0.85 0.96 1.08 1.02 1.00 1.02 1.04 1.10 1.11 1.13 1.19 1.31 1.43 1.56 1.74 2.02 2.37 2.59 2.68 2.57 2.44 2.33 2.18 2.02 1.69 1.43 1.51 1.84 1.96 1.89 1.70 1.54 1.39 1.32 1.14 1.02 1.00 0.99 0.93 0.89 0.86 0.89 0.95
0.69 0.71 0.81 0.81 0.90 0.99 1.02 1.06 1.08 1.11 1.15 1.24 1.39 1.45 1.51 1.71 1.92 2.11 2.31 2.44 2.42 2.41 2.38 2.13 1.83 1.56 1.49 1.63 1.87 1.86 1.79 1.79 1.55 1.48 1.44 1.29 1.14 1.08 1.03 0.90 0.87 0.86 0.87
0.78 0.79 0.89 0.92 0.87 0.88 0.93 1.01 1.06 1.05 1.05 1.07 1.14 1.24 1.34 1.41 1.58 1.71 1.83 2.05 2.26 2.49 2.55 2.39 2.13 1.80 1.68 1.57 1.65 1.81 1.89 1.84 1.76 1.57 1.53 1.39 1.36 1.30 1.25 1.08 0.93 0.85 0.88
0.86 0.85 0.93 1.03 1.07 1.03 1.01 1.07 1.02 1.02 1.05 1.03 1.07 1.06 1.13 1.18 1.27 1.45 1.48 1.71 2.02 2.30 2.40 2.47 2.34 2.03 1.76 1.60 1.37 1.48 1.75 1.98 1.98 1.92 1.90 1.63 1.47 1.32 1.27 1.25 1.18 1.04 0.92
0.77 0.73 0.75 0.80 0.88 0.95 1.23 1.16 0.94 0.88 0.95 1.00 1.05 1.04 1.07 1.03 1.01 1.09 1.23 1.35 1.62 1.85 1.99 2.08 2.10 1.93 1.72 1.58 1.54 1.50 1.58 1.72 1.78 1.70 1.77 1.85 1.74 1.57 1.46 1.34 1.36 1.40 1.30
0.66 0.62 0.62 0.60 0.64 0.84 0.98 0.79 0.75 0.76 0.88 0.99 1.07 1.12 1.09 1.02 1.05 1.06 1.10 1.11 1.16 1.36 1.57 1.77 1.80 1.69 1.76 1.68 1.61 1.50 1.51 1.51 1.50 1.61 1.70 1.81 1.80 1.70 1.61 1.58 1.58 1.46 1.41
0.58 0.55 0.59 0.65 0.66 0.72 0.82 0.68 0.63 0.69 0.88 1.01 1.02 0.99 1.08 1.10 1.14 1.19 1.12 1.16 1.10 1.09 1.20 1.23 1.36 1.58 1.75 1.92 1.90 1.79 1.79 1.71 1.62 1.72 1.73 1.71 1.61 1.56 1.49 1.48 1.54 1.37 1.26
0.66 0.62 0.71 0.77 0.72 0.68 0.75 0.71 0.72 0.81 0.93 1.02 0.99 1.00 1.10 1.14 1.31 1.36 1.25 1.31 1.25 1.22 1.21 1.32 1.41 1.52 1.63 1.74 1.88 1.91 1.87 1.85 1.71 1.64 1.62 1.57 1.45 1.48 1.48 1.39 1.35 1.35 1.23
0.61 0.66 0.66 0.61 0.61 0.69 0.80 0.75 0.81 0.94 1.06 1.16 1.13 1.14 1.36 1.32 1.32 1.25 1.19 1.36 1.32 1.19 1.12 1.16 1.21 1.31 1.36 1.46 1.60 1.64 1.78 1.87 1.78 1.63 1.40 1.38 1.36 1.41 1.49 1.38 1.27 1.20 1.17